Observation data for Bootleg on 02/16/2017      Previous  Date  Next       Current Mesonet Observations  Soil Data  Daily Summary Page  Observations in Plain Language
KBO1 160600Z 24011KT 00/M05 A3011 RMK A01 T00021046  RH  070%=      5-min Rain = 0
KBO1 160601Z 24011KT 00/M05 A3011 RMK A01 T00011046  RH  070%=      5-min Rain = 0
KBO1 160602Z 24012KT 00/M05 A3011 RMK A01 T00011046  RH  071%=      5-min Rain = 0
KBO1 160603Z 24012KT 00/M05 A3011 RMK A01 T00011046  RH  071%=      5-min Rain = 0
KBO1 160604Z 24011KT 00/M05 A3011 RMK A01 T00011046  RH  071%=      5-min Rain = 0
KBO1 160605Z 24012KT 00/M05 A3011 RMK A01 T00011046  RH  071%=      5-min Rain = 0
KBO1 160606Z 24012KT 00/M05 A3011 RMK A01 T00011046  RH  070%=      5-min Rain = 0
KBO1 160607Z 24011KT 00/M05 A3011 RMK A01 T00011046  RH  070%=      5-min Rain = 0
KBO1 160608Z 24012KT 00/M05 A3011 RMK A01 T00011046  RH  071%=      5-min Rain = 0
KBO1 160609Z 24012KT 00/M05 A3011 RMK A01 T00011047  RH  070%=      5-min Rain = 0
KBO1 160610Z 24012KT 00/M05 A3011 RMK A01 T00011046  RH  070%=      5-min Rain = 0
KBO1 160611Z 24012KT 00/M05 A3011 RMK A01 T00011046  RH  070%=      5-min Rain = 0
KBO1 160612Z 24012KT 00/M05 A3011 RMK A01 T00011047  RH  070%=      5-min Rain = 0
KBO1 160613Z 24012KT 00/M05 A3011 RMK A01 T00021046  RH  070%=      5-min Rain = 0
KBO1 160614Z 24011KT 00/M05 A3011 RMK A01 T00021046  RH  070%=      5-min Rain = 0
KBO1 160615Z 24012KT 00/M05 A3011 RMK A01 T00021046  RH  070%=      5-min Rain = 0
KBO1 160616Z 24011KT 00/M05 A3011 RMK A01 T00021046  RH  070%=      5-min Rain = 0
KBO1 160617Z 24012KT 00/M05 A3011 RMK A01 T00011047  RH  070%=      5-min Rain = 0
KBO1 160618Z 24011KT 00/05 A3011 RMK A01 T00000-47  RH  070%=      5-min Rain = 0
KBO1 160619Z 24011KT 00/M05 A3011 RMK A01 T00011047  RH  070%=      5-min Rain = 0
KBO1 160620Z 24011KT 00/05 A3011 RMK A01 T00000-47  RH  070%=      5-min Rain = 0
KBO1 160621Z 24011KT 00/05 A3011 RMK A01 T00-00-47  RH  071%=      5-min Rain = 0
KBO1 160622Z 24011KT M00/M05 A3011 RMK A01 T10011047  RH  071%=      5-min Rain = 0
KBO1 160623Z 24011KT M00/M05 A3011 RMK A01 T10011047  RH  071%=      5-min Rain = 0
KBO1 160624Z 24012KT M00/M05 A3011 RMK A01 T10011047  RH  071%=      5-min Rain = 0
KBO1 160625Z 24012KT 00/05 A3011 RMK A01 T00000-47  RH  071%=      5-min Rain = 0
KBO1 160626Z 24012KT 00/M05 A3011 RMK A01 T00011047  RH  070%=      5-min Rain = 0
KBO1 160627Z 24012KT 00/M05 A3011 RMK A01 T00011047  RH  070%=      5-min Rain = 0
KBO1 160628Z 24012KT 00/M05 A3011 RMK A01 T00021047  RH  070%=      5-min Rain = 0
KBO1 160629Z 24011KT 00/M05 A3011 RMK A01 T00011047  RH  070%=      5-min Rain = 0
KBO1 160630Z 24011KT 00/M05 A3011 RMK A01 T00021046  RH  070%=      5-min Rain = 0
KBO1 160631Z 24011KT 00/M05 A3011 RMK A01 T00011047  RH  070%=      5-min Rain = 0
KBO1 160632Z 24011KT 00/M05 A3011 RMK A01 T00021047  RH  070%=      5-min Rain = 0
KBO1 160633Z 24011KT 00/M05 A3011 RMK A01 T00021047  RH  069%=      5-min Rain = 0
KBO1 160634Z 24012KT 00/M05 A3011 RMK A01 T00031047  RH  069%=      5-min Rain = 0
KBO1 160635Z 24011KT 00/M05 A301 RMK A01 T00031047  RH  069%=      5-min Rain = 0
KBO1 160636Z 24011KT 00/M05 A301 RMK A01 T00041047  RH  069%=      5-min Rain = 0
KBO1 160637Z 24012KT 00/M05 A301 RMK A01 T00041047  RH  069%=      5-min Rain = 0
KBO1 160638Z 24012KT 00/M05 A301 RMK A01 T00031047  RH  069%=      5-min Rain = 0
KBO1 160639Z 24012KT 00/M05 A301 RMK A01 T00031047  RH  069%=      5-min Rain = 0
KBO1 160640Z 24011KT 00/M05 A301 RMK A01 T00031047  RH  069%=      5-min Rain = 0
KBO1 160641Z 24012KT 00/M05 A301 RMK A01 T00031047  RH  069%=      5-min Rain = 0
KBO1 160642Z 24011KT 00/M05 A301 RMK A01 T00041047  RH  069%=      5-min Rain = 0
KBO1 160643Z 24011KT 00/M05 A301 RMK A01 T00041047  RH  069%=      5-min Rain = 0
KBO1 160644Z 24012KT 00/M05 A301 RMK A01 T00031046  RH  069%=      5-min Rain = 0
KBO1 160645Z 24011KT 00/M05 A301 RMK A01 T00031046  RH  069%=      5-min Rain = 0
KBO1 160646Z 24012KT 00/M05 A301 RMK A01 T00031046  RH  069%=      5-min Rain = 0
KBO1 160647Z 24012KT 00/M05 A301 RMK A01 T00041046  RH  069%=      5-min Rain = 0
KBO1 160648Z 24012KT 00/M05 A301 RMK A01 T00041046  RH  069%=      5-min Rain = 0
KBO1 160649Z 23012KT 00/M05 A301 RMK A01 T00041046  RH  069%=      5-min Rain = 0
KBO1 160650Z 24012KT 00/M05 A301 RMK A01 T00041046  RH  069%=      5-min Rain = 0
KBO1 160651Z 23012KT 00/M05 A301 RMK A01 T00041046  RH  069%=      5-min Rain = 0
KBO1 160652Z 23012KT 00/M05 A301 RMK A01 T00041046  RH  069%=      5-min Rain = 0
KBO1 160653Z 24012KT 00/M05 A301 RMK A01 T00041046  RH  069%=      5-min Rain = 0
KBO1 160654Z 23012KT 00/M05 A301 RMK A01 T00041046  RH  069%=      5-min Rain = 0
KBO1 160655Z 24012KT 00/M05 A301 RMK A01 T00041046  RH  069%=      5-min Rain = 0
KBO1 160656Z 23012KT 00/M05 A301 RMK A01 T00041046  RH  069%=      5-min Rain = 0
KBO1 160657Z 24011KT 00/M05 A301 RMK A01 T00031045  RH  070%=      5-min Rain = 0
KBO1 160658Z 24012KT 00/M05 A301 RMK A01 T00031046  RH  070%=      5-min Rain = 0
KBO1 160659Z 24011KT 00/M05 A301 RMK A01 T00021046  RH  070%=      5-min Rain = 0
KBO1 160700Z 24011KT 00/M05 A301 RMK A01 T00021046  RH  070%=      5-min Rain = 0
KBO1 160701Z 24011KT 00/M05 A301 RMK A01 T00011046  RH  071%=      5-min Rain = 0
KBO1 160702Z 24012KT 00/05 A301 RMK A01 T00-00-47  RH  071%=      5-min Rain = 0
KBO1 160703Z 23012KT 00/05 A301 RMK A01 T00000-46  RH  071%=      5-min Rain = 0
KBO1 160704Z 24012KT 00/05 A301 RMK A01 T00000-46  RH  071%=      5-min Rain = 0
KBO1 160705Z 24012KT 00/05 A301 RMK A01 T00-00-46  RH  071%=      5-min Rain = 0
KBO1 160706Z 23012KT 00/05 A301 RMK A01 T00-00-46  RH  071%=      5-min Rain = 0
KBO1 160707Z 23012KT 00/05 A301 RMK A01 T00-00-46  RH  071%=      5-min Rain = 0
KBO1 160708Z 24012KT M00/M05 A301 RMK A01 T10011046  RH  071%=      5-min Rain = 0
KBO1 160709Z 23012KT M00/M05 A301 RMK A01 T10011046  RH  072%=      5-min Rain = 0
KBO1 160710Z 24012KT M00/M05 A301 RMK A01 T10021046  RH  072%=      5-min Rain = 0
KBO1 160711Z 24012KT M00/M05 A301 RMK A01 T10031047  RH  072%=      5-min Rain = 0
KBO1 160712Z 24012KT M00/M05 A301 RMK A01 T10031047  RH  072%=      5-min Rain = 0
KBO1 160713Z 24012KT M00/M05 A301 RMK A01 T10031047  RH  073%=      5-min Rain = 0
KBO1 160714Z 24012KT M00/M05 A301 RMK A01 T10041047  RH  073%=      5-min Rain = 0
KBO1 160715Z 24012KT M00/M05 A301 RMK A01 T10041047  RH  073%=      5-min Rain = 0
KBO1 160716Z 24012KT M00/M05 A301 RMK A01 T10031047  RH  073%=      5-min Rain = 0
KBO1 160717Z 24012KT M00/M05 A301 RMK A01 T10031046  RH  072%=      5-min Rain = 0
KBO1 160718Z 24012KT M00/M05 A301 RMK A01 T10021046  RH  072%=      5-min Rain = 0
KBO1 160719Z 24012KT M00/M05 A301 RMK A01 T10011046  RH  072%=      5-min Rain = 0
KBO1 160720Z 24012KT M00/M05 A301 RMK A01 T10011046  RH  072%=      5-min Rain = 0
KBO1 160721Z 24012KT M00/M05 A301 RMK A01 T10011046  RH  072%=      5-min Rain = 0
KBO1 160722Z 24012KT M00/M05 A3009 RMK A01 T10011046  RH  072%=      5-min Rain = 0
KBO1 160723Z 24012KT M00/M05 A3009 RMK A01 T10011046  RH  072%=      5-min Rain = 0
KBO1 160724Z 24012KT M00/M05 A3009 RMK A01 T10011046  RH  072%=      5-min Rain = 0
KBO1 160725Z 24012KT M00/M05 A3009 RMK A01 T10011046  RH  072%=      5-min Rain = 0
KBO1 160726Z 24012KT M00/M05 A3009 RMK A01 T10011046  RH  072%=      5-min Rain = 0
KBO1 160727Z 24012KT M00/M05 A3009 RMK A01 T10011046  RH  072%=      5-min Rain = 0
KBO1 160728Z 24012KT M00/M05 A3009 RMK A01 T10011045  RH  072%=      5-min Rain = 0
KBO1 160729Z 24012KT M00/M05 A3009 RMK A01 T10011046  RH  072%=      5-min Rain = 0
KBO1 160730Z 24012KT M00/M05 A3009 RMK A01 T10011046  RH  072%=      5-min Rain = 0
KBO1 160731Z 24012KT M00/M05 A3009 RMK A01 T10011046  RH  072%=      5-min Rain = 0
KBO1 160732Z 24012KT M00/M05 A3009 RMK A01 T10021046  RH  072%=      5-min Rain = 0
KBO1 160733Z 24012KT M00/M05 A3009 RMK A01 T10021046  RH  072%=      5-min Rain = 0
KBO1 160734Z 24012KT M00/M05 A3009 RMK A01 T10021046  RH  072%=      5-min Rain = 0
KBO1 160735Z 24012KT M00/M05 A3009 RMK A01 T10031046  RH  072%=      5-min Rain = 0
KBO1 160736Z 24012KT M00/M05 A3009 RMK A01 T10031046  RH  072%=      5-min Rain = 0
KBO1 160737Z 24012KT M00/M05 A3009 RMK A01 T10021046  RH  072%=      5-min Rain = 0
KBO1 160738Z 24013KT M00/M05 A3009 RMK A01 T10031046  RH  072%=      5-min Rain = 0
KBO1 160739Z 24012KT M00/M05 A3009 RMK A01 T10031047  RH  073%=      5-min Rain = 0
KBO1 160740Z 24012KT M00/M05 A3009 RMK A01 T10031046  RH  073%=      5-min Rain = 0
KBO1 160741Z 24012KT M00/M05 A3009 RMK A01 T10041046  RH  073%=      5-min Rain = 0
KBO1 160742Z 24012KT M00/M05 A3009 RMK A01 T10041047  RH  073%=      5-min Rain = 0
KBO1 160743Z 24012KT M00/M05 A3009 RMK A01 T10041047  RH  073%=      5-min Rain = 0
KBO1 160744Z 24012KT M01/M05 A3009 RMK A01 T10051047  RH  073%=      5-min Rain = 0
KBO1 160745Z 24012KT M01/M05 A3009 RMK A01 T10051047  RH  073%=      5-min Rain = 0
KBO1 160746Z 24012KT M01/M05 A3009 RMK A01 T10051047  RH  073%=      5-min Rain = 0
KBO1 160747Z 24012KT M01/M05 A3009 RMK A01 T10051047  RH  073%=      5-min Rain = 0
KBO1 160748Z 24012KT M01/M05 A3009 RMK A01 T10051047  RH  073%=      5-min Rain = 0
KBO1 160749Z 24012KT M00/M05 A3009 RMK A01 T10041047  RH  073%=      5-min Rain = 0
KBO1 160750Z 23012KT M01/M05 A3009 RMK A01 T10051047  RH  073%=      5-min Rain = 0
KBO1 160751Z 24012KT M01/M05 A3009 RMK A01 T10051047  RH  073%=      5-min Rain = 0
KBO1 160752Z 24012KT M01/M05 A3009 RMK A01 T10051047  RH  074%=      5-min Rain = 0
KBO1 160753Z 24012KT M01/M05 A3009 RMK A01 T10051047  RH  074%=      5-min Rain = 0
KBO1 160754Z 24012KT M01/M05 A3009 RMK A01 T10051046  RH  074%=      5-min Rain = 0
KBO1 160755Z 24012KT M01/M05 A3009 RMK A01 T10061047  RH  074%=      5-min Rain = 0
KBO1 160756Z 24012KT M01/M05 A3009 RMK A01 T10061047  RH  074%=      5-min Rain = 0
KBO1 160757Z 24012KT M01/M05 A3009 RMK A01 T10071047  RH  074%=      5-min Rain = 0
KBO1 160758Z 24012KT M01/M05 A3009 RMK A01 T10071047  RH  074%=      5-min Rain = 0
KBO1 160759Z 24012KT M01/M05 A3009 RMK A01 T10071047  RH  075%=      5-min Rain = 0
KBO1 160800Z 24012KT M01/M05 A3009 RMK A01 T10071047  RH  075%=      5-min Rain = 0
KBO1 160801Z 24012KT M01/M05 A3009 RMK A01 T10071047  RH  075%=      5-min Rain = 0
KBO1 160802Z 24012KT M01/M05 A3008 RMK A01 T10081047  RH  075%=      5-min Rain = 0
KBO1 160803Z 24012KT M01/M05 A3008 RMK A01 T10081047  RH  075%=      5-min Rain = 0
KBO1 160804Z 24012KT M01/M05 A3008 RMK A01 T10081047  RH  075%=      5-min Rain = 0
KBO1 160805Z 24012KT M01/M05 A3008 RMK A01 T10081047  RH  075%=      5-min Rain = 0
KBO1 160806Z 24012KT M01/M05 A3008 RMK A01 T10081047  RH  075%=      5-min Rain = 0
KBO1 160807Z 24012KT M01/M05 A3008 RMK A01 T10081047  RH  075%=      5-min Rain = 0
KBO1 160808Z 24012KT M01/M05 A3008 RMK A01 T10081047  RH  075%=      5-min Rain = 0
KBO1 160809Z 24012KT M01/M05 A3008 RMK A01 T10081047  RH  075%=      5-min Rain = 0
KBO1 160810Z 24012KT M01/M05 A3008 RMK A01 T10081047  RH  075%=      5-min Rain = 0
KBO1 160811Z 24012KT M01/M05 A3008 RMK A01 T10091048  RH  075%=      5-min Rain = 0
KBO1 160812Z 24012KT M01/M05 A3008 RMK A01 T10091048  RH  075%=      5-min Rain = 0
KBO1 160813Z 24011KT M01/M05 A3008 RMK A01 T10091048  RH  075%=      5-min Rain = 0
KBO1 160814Z 24012KT M01/M05 A3008 RMK A01 T10101048  RH  075%=      5-min Rain = 0
KBO1 160815Z 24012KT M01/M05 A3008 RMK A01 T10101048  RH  076%=      5-min Rain = 0
KBO1 160816Z 24012KT M01/M05 A3008 RMK A01 T10111048  RH  076%=      5-min Rain = 0
KBO1 160817Z 24012KT M01/M05 A3008 RMK A01 T10111048  RH  076%=      5-min Rain = 0
KBO1 160818Z 24012KT M01/M05 A3008 RMK A01 T10111048  RH  076%=      5-min Rain = 0
KBO1 160819Z 24012KT M01/M05 A3008 RMK A01 T10111048  RH  076%=      5-min Rain = 0
KBO1 160820Z 24012KT M01/M05 A3008 RMK A01 T10111048  RH  076%=      5-min Rain = 0
KBO1 160821Z 24012KT M01/M05 A3008 RMK A01 T10111048  RH  076%=      5-min Rain = 0
KBO1 160822Z 24012KT M01/M05 A3008 RMK A01 T10101047  RH  076%=      5-min Rain = 0
KBO1 160823Z 24012KT M01/M05 A3008 RMK A01 T10091046  RH  076%=      5-min Rain = 0
KBO1 160824Z 24012KT M01/M05 A3008 RMK A01 T10091047  RH  076%=      5-min Rain = 0
KBO1 160825Z 24011KT M01/M05 A3008 RMK A01 T10081046  RH  075%=      5-min Rain = 0
KBO1 160826Z 24012KT M01/M05 A3008 RMK A01 T10081046  RH  075%=      5-min Rain = 0
KBO1 160827Z 24011KT M01/M05 A3008 RMK A01 T10081046  RH  075%=      5-min Rain = 0
KBO1 160828Z 24012KT M01/M05 A3008 RMK A01 T10081046  RH  075%=      5-min Rain = 0
KBO1 160829Z 24012KT M01/M05 A3008 RMK A01 T10071046  RH  075%=      5-min Rain = 0
KBO1 160830Z 24012KT M01/M05 A3008 RMK A01 T10061045  RH  075%=      5-min Rain = 0
KBO1 160831Z 24012KT M01/M05 A3008 RMK A01 T10061045  RH  075%=      5-min Rain = 0
KBO1 160832Z 24012KT M01/M05 A3008 RMK A01 T10061045  RH  075%=      5-min Rain = 0
KBO1 160833Z 24012KT M01/M05 A3008 RMK A01 T10061045  RH  074%=      5-min Rain = 0
KBO1 160834Z 24012KT M01/M05 A3008 RMK A01 T10051045  RH  074%=      5-min Rain = 0
KBO1 160835Z 24012KT M01/M05 A3008 RMK A01 T10051045  RH  074%=      5-min Rain = 0
KBO1 160836Z 24012KT M00/M05 A3008 RMK A01 T10041045  RH  074%=      5-min Rain = 0
KBO1 160837Z 24012KT M00/M05 A3008 RMK A01 T10041045  RH  074%=      5-min Rain = 0
KBO1 160838Z 24011KT M00/M05 A3008 RMK A01 T10041045  RH  074%=      5-min Rain = 0
KBO1 160839Z 24012KT M00/M05 A3008 RMK A01 T10041045  RH  074%=      5-min Rain = 0
KBO1 160840Z 24011KT M00/M05 A3008 RMK A01 T10041045  RH  074%=      5-min Rain = 0
KBO1 160841Z 24012KT M00/M05 A3008 RMK A01 T10041045  RH  074%=      5-min Rain = 0
KBO1 160842Z 24012KT M01/M05 A3008 RMK A01 T10051046  RH  074%=      5-min Rain = 0
KBO1 160843Z 24012KT M00/M05 A3008 RMK A01 T10041046  RH  074%=      5-min Rain = 0
KBO1 160844Z 24012KT M00/M05 A3008 RMK A01 T10041045  RH  074%=      5-min Rain = 0
KBO1 160845Z 24012KT M00/M05 A3008 RMK A01 T10041045  RH  074%=      5-min Rain = 0
KBO1 160846Z 24012KT M01/M05 A3008 RMK A01 T10051046  RH  074%=      5-min Rain = 0
KBO1 160847Z 24012KT M01/M05 A3008 RMK A01 T10051046  RH  074%=      5-min Rain = 0
KBO1 160848Z 24012KT M01/M05 A3008 RMK A01 T10051046  RH  074%=      5-min Rain = 0
KBO1 160849Z 24012KT M00/M05 A3007 RMK A01 T10041046  RH  074%=      5-min Rain = 0
KBO1 160850Z 24012KT M00/M05 A3007 RMK A01 T10041046  RH  074%=      5-min Rain = 0
KBO1 160851Z 24012KT M01/M05 A3007 RMK A01 T10051046  RH  073%=      5-min Rain = 0
KBO1 160852Z 25013KT M00/M05 A3007 RMK A01 T10041046  RH  073%=      5-min Rain = 0
KBO1 160853Z 24012KT M00/M05 A3007 RMK A01 T10041046  RH  073%=      5-min Rain = 0
KBO1 160854Z 24012KT M00/M05 A3007 RMK A01 T10041047  RH  073%=      5-min Rain = 0
KBO1 160855Z 24012KT M01/M05 A3007 RMK A01 T10051047  RH  073%=      5-min Rain = 0
KBO1 160856Z 24012KT M01/M05 A3007 RMK A01 T10051048  RH  073%=      5-min Rain = 0
KBO1 160857Z 24012KT M01/M05 A3007 RMK A01 T10061048  RH  073%=      5-min Rain = 0
KBO1 160858Z 24012KT M01/M05 A3007 RMK A01 T10061048  RH  073%=      5-min Rain = 0
KBO1 160859Z 24012KT M01/M05 A3007 RMK A01 T10071048  RH  073%=      5-min Rain = 0
KBO1 160900Z 24012KT M01/M05 A3007 RMK A01 T10071048  RH  074%=      5-min Rain = 0
KBO1 160901Z 24012KT M01/M05 A3007 RMK A01 T10071048  RH  073%=      5-min Rain = 0
KBO1 160902Z 24012KT M01/M05 A3007 RMK A01 T10071048  RH  074%=      5-min Rain = 0
KBO1 160903Z 24012KT M01/M05 A3007 RMK A01 T10071048  RH  074%=      5-min Rain = 0
KBO1 160904Z 24012KT M01/M05 A3007 RMK A01 T10081048  RH  074%=      5-min Rain = 0
KBO1 160905Z 24012KT M01/M05 A3007 RMK A01 T10081048  RH  074%=      5-min Rain = 0
KBO1 160906Z 24012KT M01/M05 A3007 RMK A01 T10081048  RH  074%=      5-min Rain = 0
KBO1 160907Z 24012KT M01/M05 A3007 RMK A01 T10081048  RH  074%=      5-min Rain = 0
KBO1 160908Z 24012KT M01/M05 A3007 RMK A01 T10091048  RH  075%=      5-min Rain = 0
KBO1 160909Z 24012KT M01/M05 A3007 RMK A01 T10101049  RH  075%=      5-min Rain = 0
KBO1 160910Z 24012KT M01/M05 A3007 RMK A01 T10091048  RH  075%=      5-min Rain = 0
KBO1 160911Z 24012KT M01/M05 A3007 RMK A01 T10091048  RH  075%=      5-min Rain = 0
KBO1 160912Z 25012KT M01/M05 A3007 RMK A01 T10091048  RH  075%=      5-min Rain = 0
KBO1 160913Z 24012KT M01/M05 A3007 RMK A01 T10091049  RH  075%=      5-min Rain = 0
KBO1 160914Z 24011KT M01/M05 A3007 RMK A01 T10091048  RH  075%=      5-min Rain = 0
KBO1 160915Z 24012KT M01/M05 A3007 RMK A01 T10091048  RH  074%=      5-min Rain = 0
KBO1 160916Z 24011KT M01/M05 A3007 RMK A01 T10091049  RH  074%=      5-min Rain = 0
KBO1 160917Z 24012KT M01/M05 A3007 RMK A01 T10091048  RH  074%=      5-min Rain = 0
KBO1 160918Z 24011KT M01/M05 A3007 RMK A01 T10091049  RH  074%=      5-min Rain = 0
KBO1 160919Z 24011KT M01/M05 A3007 RMK A01 T10081048  RH  074%=      5-min Rain = 0
KBO1 160920Z 24011KT M01/M05 A3006 RMK A01 T10091048  RH  075%=      5-min Rain = 0
KBO1 160921Z 24011KT M01/M05 A3006 RMK A01 T10091049  RH  075%=      5-min Rain = 0
KBO1 160922Z 24011KT M01/M05 A3006 RMK A01 T10091049  RH  075%=      5-min Rain = 0
KBO1 160923Z 24011KT M01/M05 A3006 RMK A01 T10101049  RH  075%=      5-min Rain = 0
KBO1 160924Z 24011KT M01/M05 A3006 RMK A01 T10101050  RH  075%=      5-min Rain = 0
KBO1 160925Z 24011KT M01/M05 A3006 RMK A01 T10111050  RH  075%=      5-min Rain = 0
KBO1 160926Z 24011KT M01/M05 A3006 RMK A01 T10131051  RH  076%=      5-min Rain = 0
KBO1 160927Z 24011KT M01/M05 A3006 RMK A01 T10141051  RH  076%=      5-min Rain = 0
KBO1 160928Z 24011KT M02/M05 A3006 RMK A01 T10151051  RH  076%=      5-min Rain = 0
KBO1 160929Z 24011KT M02/M05 A3006 RMK A01 T10161051  RH  077%=      5-min Rain = 0
KBO1 160930Z 24011KT M02/M05 A3006 RMK A01 T10171051  RH  077%=      5-min Rain = 0
KBO1 160931Z 24011KT M02/M05 A3006 RMK A01 T10181052  RH  077%=      5-min Rain = 0
KBO1 160932Z 24011KT M02/M05 A3006 RMK A01 T10181051  RH  078%=      5-min Rain = 0
KBO1 160933Z 24011KT M02/M05 A3006 RMK A01 T10181051  RH  078%=      5-min Rain = 0
KBO1 160934Z 24011KT M02/M05 A3006 RMK A01 T10191052  RH  078%=      5-min Rain = 0
KBO1 160935Z 24011KT M02/M05 A3006 RMK A01 T10191052  RH  078%=      5-min Rain = 0
KBO1 160936Z 24011KT M02/M05 A3006 RMK A01 T10191052  RH  078%=      5-min Rain = 0
KBO1 160937Z 24012KT M02/M05 A3006 RMK A01 T10191052  RH  078%=      5-min Rain = 0
KBO1 160938Z 24012KT M02/M05 A3006 RMK A01 T10191052  RH  078%=      5-min Rain = 0
KBO1 160939Z 24012KT M02/M05 A3006 RMK A01 T10191052  RH  078%=      5-min Rain = 0
KBO1 160940Z 24011KT M02/M05 A3006 RMK A01 T10181051  RH  078%=      5-min Rain = 0
KBO1 160941Z 24011KT M02/M05 A3006 RMK A01 T10191052  RH  078%=      5-min Rain = 0
KBO1 160942Z 24012KT M02/M05 A3006 RMK A01 T10191052  RH  078%=      5-min Rain = 0
KBO1 160943Z 24012KT M02/M05 A3006 RMK A01 T10191052  RH  078%=      5-min Rain = 0
KBO1 160944Z 24012KT M02/M05 A3006 RMK A01 T10191052  RH  078%=      5-min Rain = 0
KBO1 160945Z 24012KT M02/M05 A3006 RMK A01 T10191052  RH  078%=      5-min Rain = 0
KBO1 160946Z 24012KT M02/M05 A3006 RMK A01 T10201053  RH  078%=      5-min Rain = 0
KBO1 160947Z 23012KT M02/M05 A3006 RMK A01 T10211053  RH  078%=      5-min Rain = 0
KBO1 160948Z 23012KT M02/M05 A3006 RMK A01 T10211054  RH  078%=      5-min Rain = 0
KBO1 160949Z 23011KT M02/M06 A3006 RMK A01 T10221055  RH  078%=      5-min Rain = 0
KBO1 160950Z 23012KT M02/M06 A3006 RMK A01 T10231055  RH  079%=      5-min Rain = 0
KBO1 160951Z 23012KT M02/M06 A3006 RMK A01 T10241056  RH  079%=      5-min Rain = 0
KBO1 160952Z 23012KT M03/M06 A3006 RMK A01 T10251056  RH  079%=      5-min Rain = 0
KBO1 160953Z 23012KT M03/M06 A3006 RMK A01 T10261056  RH  080%=      5-min Rain = 0
KBO1 160954Z 23012KT M03/M06 A3006 RMK A01 T10261056  RH  080%=      5-min Rain = 0
KBO1 160955Z 23012KT M03/M06 A3006 RMK A01 T10271056  RH  080%=      5-min Rain = 0
KBO1 160956Z 23012KT M03/M06 A3006 RMK A01 T10271056  RH  080%=      5-min Rain = 0
KBO1 160957Z 23012KT M03/M06 A3006 RMK A01 T10271056  RH  080%=      5-min Rain = 0
KBO1 160958Z 23012KT M03/M06 A3006 RMK A01 T10261055  RH  080%=      5-min Rain = 0
KBO1 160959Z 23012KT M03/M06 A3006 RMK A01 T10261055  RH  080%=      5-min Rain = 0
KBO1 161000Z 23012KT M03/M06 A3006 RMK A01 T10251055  RH  080%=      5-min Rain = 0
KBO1 161001Z 23012KT M03/M05 A3006 RMK A01 T10251054  RH  080%=      5-min Rain = 0
KBO1 161002Z 23012KT M02/M05 A3005 RMK A01 T10241054  RH  080%=      5-min Rain = 0
KBO1 161003Z 24012KT M02/M05 A3005 RMK A01 T10231054  RH  080%=      5-min Rain = 0
KBO1 161004Z 24011KT M02/M05 A3005 RMK A01 T10231053  RH  080%=      5-min Rain = 0
KBO1 161005Z 23012KT M02/M05 A3005 RMK A01 T10231053  RH  079%=      5-min Rain = 0
KBO1 161006Z 24012KT M02/M05 A3005 RMK A01 T10231054  RH  079%=      5-min Rain = 0
KBO1 161007Z 24012KT M02/M05 A3005 RMK A01 T10221053  RH  079%=      5-min Rain = 0
KBO1 161008Z 24011KT M02/M05 A3005 RMK A01 T10221053  RH  079%=      5-min Rain = 0
KBO1 161009Z 24011KT M02/M05 A3005 RMK A01 T10221053  RH  079%=      5-min Rain = 0
KBO1 161010Z 24011KT M02/M05 A3005 RMK A01 T10221053  RH  079%=      5-min Rain = 0
KBO1 161011Z 24011KT M02/M05 A3005 RMK A01 T10231053  RH  079%=      5-min Rain = 0
KBO1 161012Z 24011KT M02/M05 A3005 RMK A01 T10221053  RH  079%=      5-min Rain = 0
KBO1 161013Z 24011KT M02/M05 A3005 RMK A01 T10221053  RH  079%=      5-min Rain = 0
KBO1 161014Z 24011KT M02/M05 A3005 RMK A01 T10221053  RH  079%=      5-min Rain = 0
KBO1 161015Z 24011KT M02/M05 A3005 RMK A01 T10221053  RH  079%=      5-min Rain = 0
KBO1 161016Z 24011KT M02/M05 A3005 RMK A01 T10211053  RH  079%=      5-min Rain = 0
KBO1 161017Z 24011KT M02/M05 A3005 RMK A01 T10211052  RH  079%=      5-min Rain = 0
KBO1 161018Z 24011KT M02/M05 A3005 RMK A01 T10211053  RH  079%=      5-min Rain = 0
KBO1 161019Z 24011KT M02/M05 A3005 RMK A01 T10211053  RH  079%=      5-min Rain = 0
KBO1 161020Z 24011KT M02/M05 A3005 RMK A01 T10221053  RH  079%=      5-min Rain = 0
KBO1 161021Z 23011KT M02/M05 A3005 RMK A01 T10211053  RH  079%=      5-min Rain = 0
KBO1 161022Z 23011KT M02/M05 A3005 RMK A01 T10221053  RH  079%=      5-min Rain = 0
KBO1 161023Z 23011KT M02/M05 A3005 RMK A01 T10211053  RH  079%=      5-min Rain = 0
KBO1 161024Z 24011KT M02/M05 A3005 RMK A01 T10211053  RH  079%=      5-min Rain = 0
KBO1 161025Z 24011KT M02/M05 A3005 RMK A01 T10201052  RH  079%=      5-min Rain = 0
KBO1 161026Z 24011KT M02/M05 A3005 RMK A01 T10191052  RH  078%=      5-min Rain = 0
KBO1 161027Z 24011KT M02/M05 A3005 RMK A01 T10191052  RH  078%=      5-min Rain = 0
KBO1 161028Z 24011KT M02/M05 A3005 RMK A01 T10191052  RH  078%=      5-min Rain = 0
KBO1 161029Z 24011KT M02/M05 A3005 RMK A01 T10191052  RH  078%=      5-min Rain = 0
KBO1 161030Z 24012KT M02/M05 A3005 RMK A01 T10181052  RH  078%=      5-min Rain = 0
KBO1 161031Z 24012KT M02/M05 A3005 RMK A01 T10181051  RH  078%=      5-min Rain = 0
KBO1 161032Z 23012KT M02/M05 A3005 RMK A01 T10171051  RH  078%=      5-min Rain = 0
KBO1 161033Z 23011KT M02/M05 A3005 RMK A01 T10171051  RH  078%=      5-min Rain = 0
KBO1 161034Z 24012KT M02/M05 A3005 RMK A01 T10161050  RH  078%=      5-min Rain = 0
KBO1 161035Z 23012KT M02/M05 A3005 RMK A01 T10161050  RH  077%=      5-min Rain = 0
KBO1 161036Z 24012KT M02/M05 A3005 RMK A01 T10151050  RH  077%=      5-min Rain = 0
KBO1 161037Z 24011KT M02/M05 A3005 RMK A01 T10151050  RH  077%=      5-min Rain = 0
KBO1 161038Z 23011KT M02/M05 A3005 RMK A01 T10151050  RH  077%=      5-min Rain = 0
KBO1 161039Z 23011KT M02/M05 A3005 RMK A01 T10151049  RH  077%=      5-min Rain = 0
KBO1 161040Z 24011KT M02/M05 A3005 RMK A01 T10151050  RH  077%=      5-min Rain = 0
KBO1 161041Z 23011KT M02/M05 A3005 RMK A01 T10151049  RH  077%=      5-min Rain = 0
KBO1 161042Z 24011KT M02/M05 A3005 RMK A01 T10151049  RH  077%=      5-min Rain = 0
KBO1 161043Z 24011KT M02/M05 A3005 RMK A01 T10151049  RH  077%=      5-min Rain = 0
KBO1 161044Z 24011KT M02/M05 A3005 RMK A01 T10151049  RH  078%=      5-min Rain = 0
KBO1 161045Z 24011KT M02/M05 A3005 RMK A01 T10151049  RH  078%=      5-min Rain = 0
KBO1 161046Z 24011KT M02/M05 A3005 RMK A01 T10151049  RH  078%=      5-min Rain = 0
KBO1 161047Z 24011KT M02/M05 A3005 RMK A01 T10161049  RH  078%=      5-min Rain = 0
KBO1 161048Z 24011KT M02/M05 A3005 RMK A01 T10161049  RH  078%=      5-min Rain = 0
KBO1 161049Z 24012KT M02/M05 A3005 RMK A01 T10161049  RH  078%=      5-min Rain = 0
KBO1 161050Z 24011KT M02/M05 A3005 RMK A01 T10161049  RH  078%=      5-min Rain = 0
KBO1 161051Z 24011KT M02/M05 A3005 RMK A01 T10161049  RH  078%=      5-min Rain = 0
KBO1 161052Z 24012KT M02/M05 A3005 RMK A01 T10161048  RH  079%=      5-min Rain = 0
KBO1 161053Z 24011KT M02/M05 A3005 RMK A01 T10161048  RH  079%=      5-min Rain = 0
KBO1 161054Z 24011KT M02/M05 A3005 RMK A01 T10161047  RH  079%=      5-min Rain = 0
KBO1 161055Z 24011KT M02/M05 A3005 RMK A01 T10161047  RH  079%=      5-min Rain = 0
KBO1 161056Z 24011KT M02/M05 A3005 RMK A01 T10151047  RH  079%=      5-min Rain = 0
KBO1 161057Z 24011KT M02/M05 A3005 RMK A01 T10151047  RH  079%=      5-min Rain = 0
KBO1 161058Z 24011KT M02/M05 A3005 RMK A01 T10151047  RH  079%=      5-min Rain = 0
KBO1 161059Z 24011KT M01/M05 A3005 RMK A01 T10141047  RH  079%=      5-min Rain = 0
KBO1 161100Z 24011KT M02/M05 A3005 RMK A01 T10151047  RH  078%=      5-min Rain = 0
KBO1 161101Z 24011KT M02/M05 A3005 RMK A01 T10161048  RH  079%=      5-min Rain = 0
KBO1 161102Z 24011KT M02/M05 A3005 RMK A01 T10171048  RH  079%=      5-min Rain = 0
KBO1 161103Z 24011KT M02/M05 A3005 RMK A01 T10181049  RH  079%=      5-min Rain = 0
KBO1 161104Z 24011KT M02/M05 A3005 RMK A01 T10191049  RH  080%=      5-min Rain = 0
KBO1 161105Z 24011KT M02/M05 A3005 RMK A01 T10191049  RH  080%=      5-min Rain = 0
KBO1 161106Z 24011KT M02/M05 A3005 RMK A01 T10201049  RH  080%=      5-min Rain = 0
KBO1 161107Z 24011KT M02/M05 A3005 RMK A01 T10201049  RH  081%=      5-min Rain = 0
KBO1 161108Z 24011KT M02/M05 A3005 RMK A01 T10201049  RH  081%=      5-min Rain = 0
KBO1 161109Z 24011KT M02/M05 A3005 RMK A01 T10201049  RH  081%=      5-min Rain = 0
KBO1 161110Z 24011KT M02/M05 A3004 RMK A01 T10201049  RH  081%=      5-min Rain = 0
KBO1 161111Z 24011KT M02/M05 A3004 RMK A01 T10201049  RH  081%=      5-min Rain = 0
KBO1 161112Z 24011KT M02/M05 A3004 RMK A01 T10201049  RH  081%=      5-min Rain = 0
KBO1 161113Z 24011KT M02/M05 A3005 RMK A01 T10211049  RH  081%=      5-min Rain = 0
KBO1 161114Z 24011KT M02/M05 A3005 RMK A01 T10211049  RH  081%=      5-min Rain = 0
KBO1 161115Z 24011KT M02/M05 A3004 RMK A01 T10211049  RH  081%=      5-min Rain = 0
KBO1 161116Z 24011KT M02/M05 A3004 RMK A01 T10201049  RH  081%=      5-min Rain = 0
KBO1 161117Z 24011KT M02/M05 A3004 RMK A01 T10211049  RH  081%=      5-min Rain = 0
KBO1 161118Z 24011KT M02/M05 A3004 RMK A01 T10211049  RH  081%=      5-min Rain = 0
KBO1 161119Z 24012KT M02/M05 A3004 RMK A01 T10201049  RH  081%=      5-min Rain = 0
KBO1 161120Z 24012KT M02/M05 A3004 RMK A01 T10201049  RH  081%=      5-min Rain = 0
KBO1 161121Z 24012KT M02/M05 A3004 RMK A01 T10201049  RH  080%=      5-min Rain = 0
KBO1 161122Z 24012KT M02/M05 A3004 RMK A01 T10201049  RH  080%=      5-min Rain = 0
KBO1 161123Z 24012KT M02/M05 A3004 RMK A01 T10191049  RH  080%=      5-min Rain = 0
KBO1 161124Z 24012KT M02/M05 A3004 RMK A01 T10191049  RH  080%=      5-min Rain = 0
KBO1 161125Z 24012KT M02/M05 A3004 RMK A01 T10181049  RH  080%=      5-min Rain = 0
KBO1 161126Z 24012KT M02/M05 A3004 RMK A01 T10181049  RH  080%=      5-min Rain = 0
KBO1 161127Z 24012KT M02/M05 A3004 RMK A01 T10181049  RH  080%=      5-min Rain = 0
KBO1 161128Z 24011KT M02/M05 A3004 RMK A01 T10181048  RH  080%=      5-min Rain = 0
KBO1 161129Z 24011KT M02/M05 A3004 RMK A01 T10181048  RH  080%=      5-min Rain = 0
KBO1 161130Z 24012KT M02/M05 A3004 RMK A01 T10181048  RH  080%=      5-min Rain = 0
KBO1 161131Z 25011KT M02/M05 A3004 RMK A01 T10171048  RH  079%=      5-min Rain = 0
KBO1 161132Z 24012KT M02/M05 A3004 RMK A01 T10171048  RH  079%=      5-min Rain = 0
KBO1 161133Z 24012KT M02/M05 A3004 RMK A01 T10161048  RH  079%=      5-min Rain = 0
KBO1 161134Z 24011KT M02/M05 A3004 RMK A01 T10161048  RH  079%=      5-min Rain = 0
KBO1 161135Z 25011KT M02/M05 A3004 RMK A01 T10151048  RH  078%=      5-min Rain = 0
KBO1 161136Z 24011KT M02/M05 A3004 RMK A01 T10151048  RH  078%=      5-min Rain = 0
KBO1 161137Z 24011KT M02/M05 A3004 RMK A01 T10151047  RH  078%=      5-min Rain = 0
KBO1 161138Z 24010KT M01/M05 A3004 RMK A01 T10141047  RH  079%=      5-min Rain = 0
KBO1 161139Z 24010KT M02/M05 A3004 RMK A01 T10151047  RH  079%=      5-min Rain = 0
KBO1 161140Z 24011KT M02/M05 A3004 RMK A01 T10151047  RH  079%=      5-min Rain = 0
KBO1 161141Z 24010KT M02/M05 A3004 RMK A01 T10151047  RH  079%=      5-min Rain = 0
KBO1 161142Z 24010KT M02/M05 A3004 RMK A01 T10151047  RH  079%=      5-min Rain = 0
KBO1 161143Z 25010KT M02/M05 A3004 RMK A01 T10151048  RH  079%=      5-min Rain = 0
KBO1 161144Z 25010KT M02/M05 A3004 RMK A01 T10161048  RH  079%=      5-min Rain = 0
KBO1 161145Z 24010KT M02/M05 A3004 RMK A01 T10161048  RH  079%=      5-min Rain = 0
KBO1 161146Z 25010KT M02/M05 A3004 RMK A01 T10171048  RH  079%=      5-min Rain = 0
KBO1 161147Z 24010KT M02/M05 A3004 RMK A01 T10171048  RH  079%=      5-min Rain = 0
KBO1 161148Z 24010KT M02/M05 A3004 RMK A01 T10181048  RH  080%=      5-min Rain = 0
KBO1 161149Z 24011KT M02/M05 A3004 RMK A01 T10181049  RH  080%=      5-min Rain = 0
KBO1 161150Z 24010KT M02/M05 A3004 RMK A01 T10191049  RH  080%=      5-min Rain = 0
KBO1 161151Z 24011KT M02/M05 A3004 RMK A01 T10191049  RH  080%=      5-min Rain = 0
KBO1 161152Z 24011KT M02/M05 A3004 RMK A01 T10191049  RH  080%=      5-min Rain = 0
KBO1 161153Z 25011KT M02/M05 A3004 RMK A01 T10191049  RH  080%=      5-min Rain = 0
KBO1 161154Z 25011KT M02/M05 A3004 RMK A01 T10191049  RH  080%=      5-min Rain = 0
KBO1 161155Z 25010KT M02/M05 A3004 RMK A01 T10201049  RH  080%=      5-min Rain = 0
KBO1 161156Z 25011KT M02/M05 A3004 RMK A01 T10191049  RH  080%=      5-min Rain = 0
KBO1 161157Z 25011KT M02/M05 A3004 RMK A01 T10191048  RH  080%=      5-min Rain = 0
KBO1 161158Z 25011KT M02/M05 A3004 RMK A01 T10181048  RH  080%=      5-min Rain = 0
KBO1 161159Z 25011KT M02/M05 A3004 RMK A01 T10171048  RH  080%=      5-min Rain = 0
KBO1 161200Z 25011KT M02/M05 A3004 RMK A01 T10161047  RH  079%=      5-min Rain = 0
KBO1 161201Z 25012KT M02/M05 A3004 RMK A01 T10151047  RH  079%=      5-min Rain = 0
KBO1 161202Z 25011KT M01/M05 A3004 RMK A01 T10141047  RH  078%=      5-min Rain = 0
KBO1 161203Z 24012KT M01/M05 A3004 RMK A01 T10141047  RH  078%=      5-min Rain = 0
KBO1 161204Z 24012KT M01/M05 A3004 RMK A01 T10141048  RH  078%=      5-min Rain = 0
KBO1 161205Z 24012KT M01/M05 A3004 RMK A01 T10141048  RH  078%=      5-min Rain = 0
KBO1 161206Z 24011KT M01/M05 A3004 RMK A01 T10141048  RH  078%=      5-min Rain = 0
KBO1 161207Z 24012KT M02/M05 A3004 RMK A01 T10151049  RH  078%=      5-min Rain = 0
KBO1 161208Z 24011KT M02/M05 A3004 RMK A01 T10161050  RH  078%=      5-min Rain = 0
KBO1 161209Z 24011KT M02/M05 A3004 RMK A01 T10171050  RH  078%=      5-min Rain = 0
KBO1 161210Z 24011KT M02/M05 A3004 RMK A01 T10171050  RH  078%=      5-min Rain = 0
KBO1 161211Z 24011KT M02/M05 A3004 RMK A01 T10181050  RH  078%=      5-min Rain = 0
KBO1 161212Z 24011KT M02/M05 A3003 RMK A01 T10181050  RH  079%=      5-min Rain = 0
KBO1 161213Z 24010KT M02/M05 A3003 RMK A01 T10191051  RH  079%=      5-min Rain = 0
KBO1 161214Z 24011KT M02/M05 A3003 RMK A01 T10191051  RH  079%=      5-min Rain = 0
KBO1 161215Z 24011KT M02/M05 A3003 RMK A01 T10191050  RH  079%=      5-min Rain = 0
KBO1 161216Z 24010KT M02/M05 A3003 RMK A01 T10191050  RH  079%=      5-min Rain = 0
KBO1 161217Z 24011KT M02/M05 A3003 RMK A01 T10191050  RH  079%=      5-min Rain = 0
KBO1 161218Z 24010KT M02/M05 A3003 RMK A01 T10191050  RH  079%=      5-min Rain = 0
KBO1 161219Z 24011KT M02/M05 A3003 RMK A01 T10191050  RH  079%=      5-min Rain = 0
KBO1 161220Z 24011KT M02/M05 A3003 RMK A01 T10181050  RH  079%=      5-min Rain = 0
KBO1 161221Z 24011KT M02/M05 A3003 RMK A01 T10181050  RH  079%=      5-min Rain = 0
KBO1 161222Z 24011KT M02/M05 A3003 RMK A01 T10171049  RH  079%=      5-min Rain = 0
KBO1 161223Z 24011KT M02/M05 A3003 RMK A01 T10171049  RH  079%=      5-min Rain = 0
KBO1 161224Z 24011KT M02/M05 A3003 RMK A01 T10171049  RH  079%=      5-min Rain = 0
KBO1 161225Z 24010KT M02/M05 A3003 RMK A01 T10171049  RH  079%=      5-min Rain = 0
KBO1 161226Z 24011KT M02/M05 A3003 RMK A01 T10171049  RH  079%=      5-min Rain = 0
KBO1 161227Z 24012KT M02/M05 A3003 RMK A01 T10171049  RH  079%=      5-min Rain = 0
KBO1 161228Z 25011KT M02/M05 A3003 RMK A01 T10171049  RH  079%=      5-min Rain = 0
KBO1 161229Z 25011KT M02/M05 A3003 RMK A01 T10161049  RH  078%=      5-min Rain = 0
KBO1 161230Z 25011KT M02/M05 A3003 RMK A01 T10161049  RH  078%=      5-min Rain = 0
KBO1 161231Z 25011KT M02/M05 A3003 RMK A01 T10161050  RH  078%=      5-min Rain = 0
KBO1 161232Z 25011KT M02/M05 A3003 RMK A01 T10161049  RH  078%=      5-min Rain = 0
KBO1 161233Z 25011KT M02/M05 A3003 RMK A01 T10171050  RH  078%=      5-min Rain = 0
KBO1 161234Z 25011KT M02/M05 A3003 RMK A01 T10171050  RH  078%=      5-min Rain = 0
KBO1 161235Z 25011KT M02/M05 A3003 RMK A01 T10171050  RH  078%=      5-min Rain = 0
KBO1 161236Z 25011KT M02/M05 A3003 RMK A01 T10171050  RH  078%=      5-min Rain = 0
KBO1 161237Z 25011KT M02/M05 A3003 RMK A01 T10171050  RH  078%=      5-min Rain = 0
KBO1 161238Z 25011KT M02/M05 A3003 RMK A01 T10171050  RH  078%=      5-min Rain = 0
KBO1 161239Z 25011KT M02/M05 A3003 RMK A01 T10171050  RH  078%=      5-min Rain = 0
KBO1 161240Z 25011KT M02/M05 A3003 RMK A01 T10171050  RH  078%=      5-min Rain = 0
KBO1 161241Z 25011KT M02/M05 A3003 RMK A01 T10171050  RH  078%=      5-min Rain = 0
KBO1 161242Z 25012KT M02/M05 A3003 RMK A01 T10161050  RH  078%=      5-min Rain = 0
KBO1 161243Z 25011KT M02/M05 A3003 RMK A01 T10161050  RH  078%=      5-min Rain = 0
KBO1 161244Z 25011KT M02/M05 A3003 RMK A01 T10171050  RH  078%=      5-min Rain = 0
KBO1 161245Z 25012KT M02/M05 A3003 RMK A01 T10161050  RH  078%=      5-min Rain = 0
KBO1 161246Z 25011KT M02/M05 A3003 RMK A01 T10161050  RH  078%=      5-min Rain = 0
KBO1 161247Z 25011KT M02/M05 A3003 RMK A01 T10171051  RH  078%=      5-min Rain = 0
KBO1 161248Z 25011KT M02/M05 A3003 RMK A01 T10161050  RH  078%=      5-min Rain = 0
KBO1 161249Z 25011KT M02/M05 A3003 RMK A01 T10161050  RH  078%=      5-min Rain = 0
KBO1 161250Z 25011KT M02/M05 A3003 RMK A01 T10161050  RH  078%=      5-min Rain = 0
KBO1 161251Z 25011KT M02/M05 A3003 RMK A01 T10161050  RH  078%=      5-min Rain = 0
KBO1 161252Z 25011KT M02/M05 A3003 RMK A01 T10161050  RH  078%=      5-min Rain = 0
KBO1 161253Z 25011KT M02/M05 A3002 RMK A01 T10161050  RH  078%=      5-min Rain = 0
KBO1 161254Z 25011KT M02/M05 A3002 RMK A01 T10161050  RH  078%=      5-min Rain = 0
KBO1 161255Z 24011KT M02/M05 A3002 RMK A01 T10171050  RH  078%=      5-min Rain = 0
KBO1 161256Z 24011KT M02/M05 A3002 RMK A01 T10161049  RH  078%=      5-min Rain = 0
KBO1 161257Z 24012KT M02/M05 A3002 RMK A01 T10161050  RH  078%=      5-min Rain = 0
KBO1 161258Z 24011KT M02/M05 A3002 RMK A01 T10161049  RH  078%=      5-min Rain = 0
KBO1 161259Z 24011KT M02/M05 A3002 RMK A01 T10171050  RH  078%=      5-min Rain = 0
KBO1 161300Z 24011KT M02/M05 A3002 RMK A01 T10171050  RH  079%=      5-min Rain = 0
KBO1 161301Z 24012KT M02/M05 A3002 RMK A01 T10181050  RH  079%=      5-min Rain = 0
KBO1 161302Z 24011KT M02/M05 A3002 RMK A01 T10171049  RH  079%=      5-min Rain = 0
KBO1 161303Z 25011KT M02/M05 A3003 RMK A01 T10181050  RH  079%=      5-min Rain = 0
KBO1 161304Z 24012KT M02/M05 A3003 RMK A01 T10181049  RH  079%=      5-min Rain = 0
KBO1 161305Z 25011KT M02/M05 A3003 RMK A01 T10181049  RH  079%=      5-min Rain = 0
KBO1 161306Z 24011KT M02/M05 A3003 RMK A01 T10191050  RH  079%=      5-min Rain = 0
KBO1 161307Z 24011KT M02/M05 A3003 RMK A01 T10191050  RH  080%=      5-min Rain = 0
KBO1 161308Z 25011KT M02/M05 A3003 RMK A01 T10201050  RH  080%=      5-min Rain = 0
KBO1 161309Z 25011KT M02/M05 A3003 RMK A01 T10211051  RH  080%=      5-min Rain = 0
KBO1 161310Z 24011KT M02/M05 A3003 RMK A01 T10221051  RH  080%=      5-min Rain = 0
KBO1 161311Z 24012KT M02/M05 A3003 RMK A01 T10221051  RH  081%=      5-min Rain = 0
KBO1 161312Z 24012KT M02/M05 A3003 RMK A01 T10221051  RH  081%=      5-min Rain = 0
KBO1 161313Z 24012KT M02/M05 A3003 RMK A01 T10221050  RH  081%=      5-min Rain = 0
KBO1 161314Z 24012KT M02/M05 A3003 RMK A01 T10211050  RH  081%=      5-min Rain = 0
KBO1 161315Z 24011KT M02/M05 A3003 RMK A01 T10211050  RH  081%=      5-min Rain = 0
KBO1 161316Z 24012KT M02/M05 A3003 RMK A01 T10221050  RH  081%=      5-min Rain = 0
KBO1 161317Z 24012KT M02/M05 A3003 RMK A01 T10221050  RH  081%=      5-min Rain = 0
KBO1 161318Z 24012KT M02/M05 A3003 RMK A01 T10221050  RH  081%=      5-min Rain = 0
KBO1 161319Z 24011KT M02/M05 A3003 RMK A01 T10221050  RH  081%=      5-min Rain = 0
KBO1 161320Z 24012KT M02/M05 A3003 RMK A01 T10221050  RH  081%=      5-min Rain = 0
KBO1 161321Z 24012KT M02/M05 A3003 RMK A01 T10231050  RH  082%=      5-min Rain = 0
KBO1 161322Z 24012KT M02/M05 A3003 RMK A01 T10231050  RH  082%=      5-min Rain = 0
KBO1 161323Z 24012KT M02/M05 A3003 RMK A01 T10231050  RH  082%=      5-min Rain = 0
KBO1 161324Z 24013KT M02/M05 A3003 RMK A01 T10221049  RH  082%=      5-min Rain = 0
KBO1 161325Z 25012KT M02/M05 A3003 RMK A01 T10211048  RH  082%=      5-min Rain = 0
KBO1 161326Z 24012KT M02/M05 A3003 RMK A01 T10211048  RH  081%=      5-min Rain = 0
KBO1 161327Z 24012KT M02/M05 A3003 RMK A01 T10201048  RH  081%=      5-min Rain = 0
KBO1 161328Z 25013KT M02/M05 A3003 RMK A01 T10191047  RH  081%=      5-min Rain = 0
KBO1 161329Z 25012KT M02/M05 A3003 RMK A01 T10191047  RH  081%=      5-min Rain = 0
KBO1 161330Z 24012KT M02/M05 A3003 RMK A01 T10181046  RH  081%=      5-min Rain = 0
KBO1 161331Z 25012KT M02/M05 A3003 RMK A01 T10181047  RH  081%=      5-min Rain = 0
KBO1 161332Z 24012KT M02/M05 A3003 RMK A01 T10171046  RH  081%=      5-min Rain = 0
KBO1 161333Z 24011KT M02/M05 A3003 RMK A01 T10171046  RH  081%=      5-min Rain = 0
KBO1 161334Z 24012KT M02/M05 A3003 RMK A01 T10171046  RH  081%=      5-min Rain = 0
KBO1 161335Z 24012KT M02/M05 A3003 RMK A01 T10171046  RH  081%=      5-min Rain = 0
KBO1 161336Z 24012KT M02/M05 A3003 RMK A01 T10161046  RH  080%=      5-min Rain = 0
KBO1 161337Z 24012KT M02/M05 A3003 RMK A01 T10161045  RH  080%=      5-min Rain = 0
KBO1 161338Z 24011KT M02/M05 A3003 RMK A01 T10161045  RH  080%=      5-min Rain = 0
KBO1 161339Z 24011KT M02/M05 A3003 RMK A01 T10161045  RH  081%=      5-min Rain = 0
KBO1 161340Z 24011KT M02/M05 A3003 RMK A01 T10161045  RH  081%=      5-min Rain = 0
KBO1 161341Z 24012KT M02/M05 A3003 RMK A01 T10161045  RH  080%=      5-min Rain = 0
KBO1 161342Z 24011KT M02/M05 A3003 RMK A01 T10161045  RH  081%=      5-min Rain = 0
KBO1 161343Z 25011KT M02/M05 A3003 RMK A01 T10171046  RH  081%=      5-min Rain = 0
KBO1 161344Z 24011KT M02/M05 A3003 RMK A01 T10171046  RH  081%=      5-min Rain = 0
KBO1 161345Z 24012KT M02/M05 A3003 RMK A01 T10161045  RH  081%=      5-min Rain = 0
KBO1 161346Z 24012KT M02/M05 A3003 RMK A01 T10161046  RH  080%=      5-min Rain = 0
KBO1 161347Z 24012KT M02/M05 A3003 RMK A01 T10171046  RH  080%=      5-min Rain = 0
KBO1 161348Z 24012KT M02/M05 A3003 RMK A01 T10171047  RH  080%=      5-min Rain = 0
KBO1 161349Z 24012KT M02/M05 A3003 RMK A01 T10171047  RH  080%=      5-min Rain = 0
KBO1 161350Z 24012KT M02/M05 A3003 RMK A01 T10171047  RH  080%=      5-min Rain = 0
KBO1 161351Z 24013KT M02/M05 A3003 RMK A01 T10171046  RH  081%=      5-min Rain = 0
KBO1 161352Z 24013KT M02/M05 A3003 RMK A01 T10171047  RH  080%=      5-min Rain = 0
KBO1 161353Z 24013KT M02/M05 A3003 RMK A01 T10171046  RH  080%=      5-min Rain = 0
KBO1 161354Z 24012KT M02/M05 A3003 RMK A01 T10171046  RH  080%=      5-min Rain = 0
KBO1 161355Z 24012KT M02/M05 A3003 RMK A01 T10161046  RH  080%=      5-min Rain = 0
KBO1 161356Z 24013KT M02/M05 A3003 RMK A01 T10161045  RH  080%=      5-min Rain = 0
KBO1 161357Z 24012KT M02/M05 A3002 RMK A01 T10151045  RH  080%=      5-min Rain = 0
KBO1 161358Z 25013KT M02/M04 A3002 RMK A01 T10151044  RH  080%=      5-min Rain = 0
KBO1 161359Z 25013KT M01/M04 A3002 RMK A01 T10141044  RH  080%=      5-min Rain = 0
KBO1 161400Z 25013KT M01/M04 A3002 RMK A01 T10131043  RH  080%=      5-min Rain = 0
KBO1 161401Z 25014KT M01/M04 A3002 RMK A01 T10121043  RH  079%=      5-min Rain = 0
KBO1 161402Z 25012KT M01/M04 A3002 RMK A01 T10121043  RH  079%=      5-min Rain = 0
KBO1 161403Z 25013KT M01/M04 A3002 RMK A01 T10111043  RH  079%=      5-min Rain = 0
KBO1 161404Z 25012KT M01/M04 A3002 RMK A01 T10121043  RH  080%=      5-min Rain = 0
KBO1 161405Z 25013KT M01/M04 A3002 RMK A01 T10121043  RH  080%=      5-min Rain = 0
KBO1 161406Z 25012KT M01/M04 A3002 RMK A01 T10111042  RH  079%=      5-min Rain = 0
KBO1 161407Z 25013KT M01/M04 A3002 RMK A01 T10111042  RH  079%=      5-min Rain = 0
KBO1 161408Z 25013KT M01/M04 A3002 RMK A01 T10111042  RH  079%=      5-min Rain = 0
KBO1 161409Z 25014KT M01/M04 A3002 RMK A01 T10101041  RH  079%=      5-min Rain = 0
KBO1 161410Z 25013KT M01/M04 A3002 RMK A01 T10091040  RH  079%=      5-min Rain = 0
KBO1 161411Z 25014KT M01/M04 A3002 RMK A01 T10081040  RH  079%=      5-min Rain = 0
KBO1 161412Z 25014KT M01/M04 A3002 RMK A01 T10081040  RH  079%=      5-min Rain = 0
KBO1 161413Z 25014KT M01/M04 A3002 RMK A01 T10071040  RH  078%=      5-min Rain = 0
KBO1 161414Z 25014KT M01/M04 A3002 RMK A01 T10061039  RH  078%=      5-min Rain = 0
KBO1 161415Z 25014KT M01/M04 A3002 RMK A01 T10051039  RH  078%=      5-min Rain = 0
KBO1 161416Z 25014KT M00/M04 A3002 RMK A01 T10041039  RH  078%=      5-min Rain = 0
KBO1 161417Z 25014KT M00/M04 A3002 RMK A01 T10041038  RH  078%=      5-min Rain = 0
KBO1 161418Z 25014KT M00/M04 A3002 RMK A01 T10031038  RH  077%=      5-min Rain = 0
KBO1 161419Z 25014KT M00/M04 A3002 RMK A01 T10031038  RH  077%=      5-min Rain = 0
KBO1 161420Z 25015KT M00/M04 A3002 RMK A01 T10021037  RH  077%=      5-min Rain = 0
KBO1 161421Z 25015KT M00/M04 A3002 RMK A01 T10011037  RH  077%=      5-min Rain = 0
KBO1 161422Z 25014KT 00/04 A3002 RMK A01 T00000-36  RH  077%=      5-min Rain = 0
KBO1 161423Z 25014KT 00/M04 A3002 RMK A01 T00011036  RH  076%=      5-min Rain = 0
KBO1 161424Z 25015KT 00/M04 A3002 RMK A01 T00021035  RH  076%=      5-min Rain = 0
KBO1 161425Z 25015KT 00/M04 A3002 RMK A01 T00021035  RH  076%=      5-min Rain = 0
KBO1 161426Z 25015KT 00/M04 A3002 RMK A01 T00031035  RH  076%=      5-min Rain = 0
KBO1 161427Z 25014KT 00/M04 A3002 RMK A01 T00031035  RH  076%=      5-min Rain = 0
KBO1 161428Z 25014KT 00/M04 A3002 RMK A01 T00031035  RH  076%=      5-min Rain = 0
KBO1 161429Z 25015KT 00/M03 A3002 RMK A01 T00041034  RH  075%=      5-min Rain = 0
KBO1 161430Z 25013KT 01/M03 A3002 RMK A01 T00051034  RH  075%=      5-min Rain = 0
KBO1 161431Z 25015KT 01/M03 A3002 RMK A01 T00051033  RH  075%=      5-min Rain = 0
KBO1 161432Z 25014KT 01/M03 A3002 RMK A01 T00061033  RH  075%=      5-min Rain = 0
KBO1 161433Z 25014KT 01/M03 A3002 RMK A01 T00071032  RH  075%=      5-min Rain = 0
KBO1 161434Z 25014KT 01/M03 A3002 RMK A01 T00081032  RH  075%=      5-min Rain = 0
KBO1 161435Z 25014KT 01/M03 A3002 RMK A01 T00081031  RH  075%=      5-min Rain = 0
KBO1 161436Z 25015KT 01/M03 A3002 RMK A01 T00091031  RH  075%=      5-min Rain = 0
KBO1 161437Z 25014KT 01/M03 A3002 RMK A01 T00101030  RH  075%=      5-min Rain = 0
KBO1 161438Z 25015KT 01/M03 A3002 RMK A01 T00101030  RH  075%=      5-min Rain = 0
KBO1 161439Z 25014KT 01/M03 A3002 RMK A01 T00111030  RH  074%=      5-min Rain = 0
KBO1 161440Z 25014KT 01/M03 A3002 RMK A01 T00121029  RH  074%=      5-min Rain = 0
KBO1 161441Z 25013KT 01/M03 A3002 RMK A01 T00121028  RH  074%=      5-min Rain = 0
KBO1 161442Z 25014KT 01/M03 A3002 RMK A01 T00131027  RH  075%=      5-min Rain = 0
KBO1 161443Z 25014KT 01/M03 A3002 RMK A01 T00141027  RH  074%=      5-min Rain = 0
KBO1 161444Z 25013KT 01/M03 A3002 RMK A01 T00141027  RH  074%=      5-min Rain = 0
KBO1 161445Z 25013KT 02/M03 A3002 RMK A01 T00151026  RH  074%=      5-min Rain = 0
KBO1 161446Z 25014KT 02/M03 A3002 RMK A01 T00161025  RH  074%=      5-min Rain = 0
KBO1 161447Z 25013KT 02/M03 A3002 RMK A01 T00171026  RH  073%=      5-min Rain = 0
KBO1 161448Z 25013KT 02/M03 A3002 RMK A01 T00171025  RH  073%=      5-min Rain = 0
KBO1 161449Z 25013KT 02/M02 A3002 RMK A01 T00181024  RH  074%=      5-min Rain = 0
KBO1 161450Z 25014KT 02/M02 A3002 RMK A01 T00191023  RH  074%=      5-min Rain = 0
KBO1 161451Z 25014KT 02/M02 A3002 RMK A01 T00201024  RH  073%=      5-min Rain = 0
KBO1 161452Z 25014KT 02/M02 A3002 RMK A01 T00201023  RH  073%=      5-min Rain = 0
KBO1 161453Z 25014KT 02/M02 A3002 RMK A01 T00211023  RH  073%=      5-min Rain = 0
KBO1 161454Z 25014KT 02/M02 A3002 RMK A01 T00211023  RH  073%=      5-min Rain = 0
KBO1 161455Z 25013KT 02/M02 A3002 RMK A01 T00221022  RH  072%=      5-min Rain = 0
KBO1 161456Z 25013KT 02/M02 A3002 RMK A01 T00231021  RH  073%=      5-min Rain = 0
KBO1 161457Z 25013KT 02/M02 A3002 RMK A01 T00241020  RH  073%=      5-min Rain = 0
KBO1 161458Z 25013KT 03/M02 A3002 RMK A01 T00251019  RH  073%=      5-min Rain = 0
KBO1 161459Z 25014KT 03/M02 A3002 RMK A01 T00271018  RH  072%=      5-min Rain = 0
KBO1 161500Z 25014KT 03/M02 A3002 RMK A01 T00271020  RH  071%=      5-min Rain = 0
KBO1 161501Z 25012KT 03/M02 A3002 RMK A01 T00281019  RH  071%=      5-min Rain = 0
KBO1 161502Z 25013KT 03/M02 A3002 RMK A01 T00291017  RH  072%=      5-min Rain = 0
KBO1 161503Z 25014KT 03/M02 A3002 RMK A01 T00291017  RH  071%=      5-min Rain = 0
KBO1 161504Z 25013KT 03/M02 A3002 RMK A01 T00301017  RH  071%=      5-min Rain = 0
KBO1 161505Z 25012KT 03/M02 A3002 RMK A01 T00311016  RH  071%=      5-min Rain = 0
KBO1 161506Z 25012KT 03/M02 A3002 RMK A01 T00321015  RH  071%=      5-min Rain = 0
KBO1 161507Z 25013KT 03/M02 A3002 RMK A01 T00331015  RH  071%=      5-min Rain = 0
KBO1 161508Z 25013KT 03/M01 A3002 RMK A01 T00341014  RH  071%=      5-min Rain = 0
KBO1 161509Z 25013KT 03/M02 A3002 RMK A01 T00341015  RH  070%=      5-min Rain = 0
KBO1 161510Z 25013KT 04/M01 A3002 RMK A01 T00351014  RH  070%=      5-min Rain = 0
KBO1 161511Z 25014KT 04/M01 A3002 RMK A01 T00351014  RH  070%=      5-min Rain = 0
KBO1 161512Z 25013KT 04/M01 A3002 RMK A01 T00351014  RH  070%=      5-min Rain = 0
KBO1 161513Z 25016KT 04/M01 A3002 RMK A01 T00361014  RH  070%=      5-min Rain = 0
KBO1 161514Z 25013KT 04/M01 A3002 RMK A01 T00371013  RH  070%=      5-min Rain = 0
KBO1 161515Z 25014KT 04/M01 A3002 RMK A01 T00371012  RH  070%=      5-min Rain = 0
KBO1 161516Z 25015KT 04/M01 A3002 RMK A01 T00381012  RH  070%=      5-min Rain = 0
KBO1 161517Z 25016KT 04/M01 A3002 RMK A01 T00391012  RH  069%=      5-min Rain = 0
KBO1 161518Z 25014KT 04/M01 A3002 RMK A01 T00391012  RH  069%=      5-min Rain = 0
KBO1 161519Z 24014KT 04/M01 A3002 RMK A01 T00401010  RH  070%=      5-min Rain = 0
KBO1 161520Z 24011KT 04/M01 A3002 RMK A01 T00421009  RH  069%=      5-min Rain = 0
KBO1 161521Z 24015KT 04/M01 A3002 RMK A01 T00431009  RH  069%=      5-min Rain = 0
KBO1 161522Z 25015KT 04/M01 A3002 RMK A01 T00441011  RH  068%=      5-min Rain = 0
KBO1 161523Z 24014KT 04/M01 A3002 RMK A01 T00441010  RH  068%=      5-min Rain = 0
KBO1 161524Z 25015KT 04/M01 A3002 RMK A01 T00441011  RH  067%=      5-min Rain = 0
KBO1 161525Z 25014KT 04/M01 A3002 RMK A01 T00441011  RH  068%=      5-min Rain = 0
KBO1 161526Z 25014KT 04/M01 A3002 RMK A01 T00441009  RH  068%=      5-min Rain = 0
KBO1 161527Z 25014KT 05/M01 A3002 RMK A01 T00461008  RH  068%=      5-min Rain = 0
KBO1 161528Z 24014KT 05/M01 A3002 RMK A01 T00461008  RH  068%=      5-min Rain = 0
KBO1 161529Z 24012KT 05/M01 A3002 RMK A01 T00471007  RH  068%=      5-min Rain = 0
KBO1 161530Z 24013KT 05/M01 A3002 RMK A01 T00491005  RH  068%=      5-min Rain = 0
KBO1 161531Z 24012KT 05/M01 A3002 RMK A01 T00501005  RH  068%=      5-min Rain = 0
KBO1 161532Z 24012KT 05/M00 A3002 RMK A01 T00511004  RH  067%=      5-min Rain = 0
KBO1 161533Z 24014KT 05/M00 A3002 RMK A01 T00521004  RH  067%=      5-min Rain = 0
KBO1 161534Z 24015KT 05/M01 A3002 RMK A01 T00521005  RH  066%=      5-min Rain = 0
KBO1 161535Z 24015KT 05/M01 A3002 RMK A01 T00521008  RH  066%=      5-min Rain = 0
KBO1 161536Z 25014KT 05/M01 A3002 RMK A01 T00501008  RH  066%=      5-min Rain = 0
KBO1 161537Z 24014KT 05/M01 A3002 RMK A01 T00501006  RH  067%=      5-min Rain = 0
KBO1 161538Z 24012KT 05/M00 A3002 RMK A01 T00521004  RH  067%=      5-min Rain = 0
KBO1 161539Z 24015KT 05/M01 A3001 RMK A01 T00521005  RH  067%=      5-min Rain = 0
KBO1 161540Z 24014KT 05/M00 A3001 RMK A01 T00531004  RH  066%=      5-min Rain = 0
KBO1 161541Z 24013KT 05/M00 A3001 RMK A01 T00541004  RH  066%=      5-min Rain = 0
KBO1 161542Z 25014KT 06/M00 A3001 RMK A01 T00561004  RH  066%=      5-min Rain = 0
KBO1 161543Z 24014KT 06/M00 A3001 RMK A01 T00561004  RH  065%=      5-min Rain = 0
KBO1 161544Z 24014KT 06/M00 A3001 RMK A01 T00561004  RH  065%=      5-min Rain = 0
KBO1 161545Z 24014KT 06/M00 A3001 RMK A01 T00571003  RH  065%=      5-min Rain = 0
KBO1 161546Z 24013KT 06/M00 A3001 RMK A01 T00571003  RH  065%=      5-min Rain = 0
KBO1 161547Z 24012KT 06/M00 A3001 RMK A01 T00581002  RH  065%=      5-min Rain = 0
KBO1 161548Z 24013KT 06/M00 A3001 RMK A01 T00591001  RH  065%=      5-min Rain = 0
KBO1 161549Z 24014KT 06/M00 A3001 RMK A01 T00601002  RH  064%=      5-min Rain = 0
KBO1 161550Z 24013KT 06/M00 A3001 RMK A01 T00611002  RH  064%=      5-min Rain = 0
KBO1 161551Z 24013KT 06/M00 A3001 RMK A01 T00611001  RH  064%=      5-min Rain = 0
KBO1 161552Z 24013KT 06/M00 A3001 RMK A01 T00621001  RH  064%=      5-min Rain = 0
KBO1 161553Z 24012KT 06/00 A3001 RMK A01 T006300-0  RH  064%=      5-min Rain = 0
KBO1 161554Z 24014KT 06/00 A3001 RMK A01 T00640000  RH  064%=      5-min Rain = 0
KBO1 161555Z 24013KT 06/M00 A3001 RMK A01 T00641001  RH  063%=      5-min Rain = 0
KBO1 161556Z 24013KT 07/00 A3001 RMK A01 T006500-0  RH  063%=      5-min Rain = 0
KBO1 161557Z 24013KT 07/M00 A3001 RMK A01 T00651001  RH  063%=      5-min Rain = 0
KBO1 161558Z 24012KT 07/00 A3001 RMK A01 T00660000  RH  063%=      5-min Rain = 0
KBO1 161559Z 25013KT 07/00 A3001 RMK A01 T00680002  RH  063%=      5-min Rain = 0
KBO1 161600Z 25013KT 07/00 A3001 RMK A01 T00690000  RH  062%=      5-min Rain = 0
KBO1 161601Z 24013KT 07/00 A3001 RMK A01 T006900-0  RH  061%=      5-min Rain = 0
KBO1 161602Z 24015KT 07/M00 A3001 RMK A01 T00701001  RH  061%=      5-min Rain = 0
KBO1 161603Z 24013KT 07/M00 A3001 RMK A01 T00701001  RH  060%=      5-min Rain = 0
KBO1 161604Z 24013KT 07/00 A3001 RMK A01 T007100-0  RH  061%=      5-min Rain = 0
KBO1 161605Z 24013KT 07/00 A3001 RMK A01 T007100-0  RH  060%=      5-min Rain = 0
KBO1 161606Z 24012KT 07/00 A3001 RMK A01 T00720000  RH  060%=      5-min Rain = 0
KBO1 161607Z 24012KT 07/00 A3001 RMK A01 T00730001  RH  060%=      5-min Rain = 0
KBO1 161608Z 24013KT 08/00 A3001 RMK A01 T00750001  RH  060%=      5-min Rain = 0
KBO1 161609Z 24012KT 08/00 A3001 RMK A01 T00760002  RH  060%=      5-min Rain = 0
KBO1 161610Z 24012KT 08/01 A3001 RMK A01 T00780005  RH  060%=      5-min Rain = 0
KBO1 161611Z 24011KT 08/00 A3001 RMK A01 T00800004  RH  059%=      5-min Rain = 0
KBO1 161612Z 24013KT 08/00 A3001 RMK A01 T00810004  RH  058%=      5-min Rain = 0
KBO1 161613Z 24011KT 08/00 A3001 RMK A01 T00810003  RH  058%=      5-min Rain = 0
KBO1 161614Z 24011KT 08/01 A3001 RMK A01 T00820006  RH  059%=      5-min Rain = 0
KBO1 161615Z 24013KT 08/00 A3001 RMK A01 T00840004  RH  057%=      5-min Rain = 0
KBO1 161616Z 24014KT 08/00 A3001 RMK A01 T00840002  RH  056%=      5-min Rain = 0
KBO1 161617Z 24013KT 08/00 A3001 RMK A01 T00830000  RH  056%=      5-min Rain = 0
KBO1 161618Z 24013KT 08/00 A3001 RMK A01 T00830000  RH  056%=      5-min Rain = 0
KBO1 161619Z 24012KT 08/00 A3001 RMK A01 T00840001  RH  056%=      5-min Rain = 0
KBO1 161620Z 24012KT 09/00 A3001 RMK A01 T00860003  RH  056%=      5-min Rain = 0
KBO1 161621Z 24011KT 09/01 A30 RMK A01 T00880005  RH  056%=      5-min Rain = 0
KBO1 161622Z 24013KT 09/00 A30 RMK A01 T00890003  RH  055%=      5-min Rain = 0
KBO1 161623Z 25013KT 09/00 A30 RMK A01 T00910002  RH  054%=      5-min Rain = 0
KBO1 161624Z 25013KT 09/00 A30 RMK A01 T00910001  RH  053%=      5-min Rain = 0
KBO1 161625Z 24013KT 09/00 A30 RMK A01 T00920002  RH  053%=      5-min Rain = 0
KBO1 161626Z 25013KT 09/00 A30 RMK A01 T00940002  RH  053%=      5-min Rain = 0
KBO1 161627Z 25013KT 10/00 A30 RMK A01 T00950002  RH  053%=      5-min Rain = 0
KBO1 161628Z 25011KT 10/00 A30 RMK A01 T00960003  RH  052%=      5-min Rain = 0
KBO1 161629Z 24012KT 10/00 A30 RMK A01 T00980004  RH  052%=      5-min Rain = 0
KBO1 161630Z 24012KT 10/00 A30 RMK A01 T00990004  RH  052%=      5-min Rain = 0
KBO1 161631Z 24012KT 10/00 A30 RMK A01 T01000004  RH  051%=      5-min Rain = 0
KBO1 161632Z 24013KT 10/00 A30 RMK A01 T01010004  RH  051%=      5-min Rain = 0
KBO1 161633Z 24012KT 10/00 A30 RMK A01 T01020001  RH  050%=      5-min Rain = 0
KBO1 161634Z 24011KT 10/00 A30 RMK A01 T01010003  RH  051%=      5-min Rain = 0
KBO1 161635Z 24013KT 10/00 A30 RMK A01 T01040004  RH  050%=      5-min Rain = 0
KBO1 161636Z 24012KT 11/00 A30 RMK A01 T01050002  RH  049%=      5-min Rain = 0
KBO1 161637Z 24012KT 11/01 A30 RMK A01 T01060005  RH  050%=      5-min Rain = 0
KBO1 161638Z 24013KT 11/00 A30 RMK A01 T01070004  RH  049%=      5-min Rain = 0
KBO1 161639Z 24014KT 11/00 A30 RMK A01 T01080001  RH  048%=      5-min Rain = 0
KBO1 161640Z 24013KT 11/00 A30 RMK A01 T01090002  RH  048%=      5-min Rain = 0
KBO1 161641Z 25011KT 11/00 A30 RMK A01 T01110003  RH  047%=      5-min Rain = 0
KBO1 161642Z 25012KT 11/01 A30 RMK A01 T01120005  RH  048%=      5-min Rain = 0
KBO1 161643Z 24012KT 11/01 A30 RMK A01 T01130006  RH  048%=      5-min Rain = 0
KBO1 161644Z 25013KT 12/01 A30 RMK A01 T01150005  RH  047%=      5-min Rain = 0
KBO1 161645Z 25013KT 12/00 A30 RMK A01 T01160003  RH  046%=      5-min Rain = 0
KBO1 161646Z 23013KT 12/01 A30 RMK A01 T01150005  RH  047%=      5-min Rain = 0
KBO1 161647Z 24013KT 12/00 A30 RMK A01 T01160002  RH  046%=      5-min Rain = 0
KBO1 161648Z 24015KT 12/00 A30 RMK A01 T01170002  RH  045%=      5-min Rain = 0
KBO1 161649Z 24014KT 12/M00 A30 RMK A01 T01171001  RH  044%=      5-min Rain = 0
KBO1 161650Z 24014KT 12/M00 A30 RMK A01 T01161001  RH  045%=      5-min Rain = 0
KBO1 161651Z 24014KT 12/00 A30 RMK A01 T01150001  RH  045%=      5-min Rain = 0
KBO1 161652Z 24015KT 12/00 A2999 RMK A01 T011600-0  RH  045%=      5-min Rain = 0
KBO1 161653Z 24014KT 12/00 A2999 RMK A01 T01160000  RH  045%=      5-min Rain = 0
KBO1 161654Z 23013KT 12/M00 A2999 RMK A01 T01171001  RH  044%=      5-min Rain = 0
KBO1 161655Z 24012KT 12/00 A2999 RMK A01 T01170001  RH  045%=      5-min Rain = 0
KBO1 161656Z 23012KT 12/00 A2999 RMK A01 T01170004  RH  046%=      5-min Rain = 0
KBO1 161657Z 23012KT 12/00 A2999 RMK A01 T01190004  RH  045%=      5-min Rain = 0
KBO1 161658Z 24010KT 12/01 A2999 RMK A01 T01200006  RH  046%=      5-min Rain = 0
KBO1 161659Z 23012KT 12/01 A2999 RMK A01 T01230005  RH  044%=      5-min Rain = 0
KBO1 161700Z 23012KT 12/01 A2999 RMK A01 T01230005  RH  044%=      5-min Rain = 0
KBO1 161701Z 24013KT 12/01 A2999 RMK A01 T01240005  RH  044%=      5-min Rain = 0
KBO1 161702Z 24012KT 12/00 A2999 RMK A01 T01230003  RH  044%=      5-min Rain = 0
KBO1 161703Z 23014KT 12/00 A2999 RMK A01 T01220002  RH  044%=      5-min Rain = 0
KBO1 161704Z 24012KT 12/00 A2999 RMK A01 T01220001  RH  043%=      5-min Rain = 0
KBO1 161705Z 24011KT 12/00 A2999 RMK A01 T01220003  RH  044%=      5-min Rain = 0
KBO1 161706Z 23012KT 12/01 A2999 RMK A01 T01240006  RH  044%=      5-min Rain = 0
KBO1 161707Z 23012KT 12/00 A2999 RMK A01 T01240002  RH  043%=      5-min Rain = 0
KBO1 161708Z 23012KT 12/00 A2999 RMK A01 T01230002  RH  043%=      5-min Rain = 0
KBO1 161709Z 24012KT 13/00 A2999 RMK A01 T01250002  RH  043%=      5-min Rain = 0
KBO1 161710Z 23012KT 13/00 A2999 RMK A01 T01260004  RH  043%=      5-min Rain = 0
KBO1 161711Z 23013KT 13/00 A2999 RMK A01 T01270004  RH  043%=      5-min Rain = 0
KBO1 161712Z 24013KT 13/00 A2999 RMK A01 T01280001  RH  042%=      5-min Rain = 0
KBO1 161713Z 24012KT 13/00 A2999 RMK A01 T01280004  RH  043%=      5-min Rain = 0
KBO1 161714Z 24012KT 13/01 A2999 RMK A01 T01290008  RH  043%=      5-min Rain = 0
KBO1 161715Z 23012KT 13/01 A2999 RMK A01 T01300005  RH  042%=      5-min Rain = 0
KBO1 161716Z 23013KT 13/00 A2999 RMK A01 T01290004  RH  042%=      5-min Rain = 0
KBO1 161717Z 22013KT 13/00 A2999 RMK A01 T01270003  RH  042%=      5-min Rain = 0
KBO1 161718Z 23012KT 13/00 A2999 RMK A01 T01270003  RH  043%=      5-min Rain = 0
KBO1 161719Z 23011KT 13/00 A2999 RMK A01 T01280003  RH  042%=      5-min Rain = 0
KBO1 161720Z 23013KT 13/00 A2999 RMK A01 T01290004  RH  042%=      5-min Rain = 0
KBO1 161721Z 23012KT 13/00 A2999 RMK A01 T01300003  RH  042%=      5-min Rain = 0
KBO1 161722Z 23013KT 13/00 A2999 RMK A01 T01300002  RH  042%=      5-min Rain = 0
KBO1 161723Z 23013KT 13/00 A2999 RMK A01 T012900-0  RH  041%=      5-min Rain = 0
KBO1 161724Z 23012KT 13/00 A2999 RMK A01 T01280002  RH  042%=      5-min Rain = 0
KBO1 161725Z 23013KT 13/00 A2999 RMK A01 T01300001  RH  041%=      5-min Rain = 0
KBO1 161726Z 23012KT 13/00 A2999 RMK A01 T01310001  RH  041%=      5-min Rain = 0
KBO1 161727Z 23012KT 13/00 A2999 RMK A01 T01320003  RH  041%=      5-min Rain = 0
KBO1 161728Z 23014KT 13/00 A2999 RMK A01 T01340002  RH  040%=      5-min Rain = 0
KBO1 161729Z 23013KT 13/M00 A2999 RMK A01 T01331001  RH  040%=      5-min Rain = 0
KBO1 161730Z 22012KT 13/M00 A2999 RMK A01 T01321001  RH  040%=      5-min Rain = 0
KBO1 161731Z 23013KT 13/M00 A2999 RMK A01 T01321001  RH  040%=      5-min Rain = 0
KBO1 161732Z 24012KT 13/00 A2999 RMK A01 T01340000  RH  040%=      5-min Rain = 0
KBO1 161733Z 24011KT 13/00 A2999 RMK A01 T01340001  RH  040%=      5-min Rain = 0
KBO1 161734Z 23013KT 14/00 A2999 RMK A01 T01360001  RH  040%=      5-min Rain = 0
KBO1 161735Z 23010KT 13/M00 A2999 RMK A01 T01331003  RH  039%=      5-min Rain = 0
KBO1 161736Z 23011KT 13/00 A2999 RMK A01 T01340003  RH  041%=      5-min Rain = 0
KBO1 161737Z 23011KT 14/00 A2999 RMK A01 T01380004  RH  040%=      5-min Rain = 0
KBO1 161738Z 23013KT 14/00 A2999 RMK A01 T01390002  RH  039%=      5-min Rain = 0
KBO1 161739Z 23014KT 14/M00 A2999 RMK A01 T01371001  RH  039%=      5-min Rain = 0
KBO1 161740Z 24012KT 14/M00 A2999 RMK A01 T01361003  RH  038%=      5-min Rain = 0
KBO1 161741Z 24010KT 14/M00 A2999 RMK A01 T01351002  RH  039%=      5-min Rain = 0
KBO1 161742Z 24012KT 14/00 A2999 RMK A01 T01370002  RH  040%=      5-min Rain = 0
KBO1 161743Z 23011KT 14/00 A2999 RMK A01 T01400001  RH  039%=      5-min Rain = 0
KBO1 161744Z 24013KT 14/00 A2999 RMK A01 T01390002  RH  039%=      5-min Rain = 0
KBO1 161745Z 23012KT 14/00 A2999 RMK A01 T01390002  RH  039%=      5-min Rain = 0
KBO1 161746Z 23012KT 14/M00 A2998 RMK A01 T01391001  RH  038%=      5-min Rain = 0
KBO1 161747Z 23011KT 14/M00 A2998 RMK A01 T01371002  RH  038%=      5-min Rain = 0
KBO1 161748Z 24013KT 14/M00 A2998 RMK A01 T01371001  RH  039%=      5-min Rain = 0
KBO1 161749Z 23011KT 14/00 A2998 RMK A01 T01380002  RH  039%=      5-min Rain = 0
KBO1 161750Z 23012KT 14/00 A2998 RMK A01 T01400004  RH  039%=      5-min Rain = 0
KBO1 161751Z 24009KT 14/00 A2998 RMK A01 T01400002  RH  039%=      5-min Rain = 0
KBO1 161752Z 23011KT 14/00 A2998 RMK A01 T01400003  RH  039%=      5-min Rain = 0
KBO1 161753Z 23011KT 14/00 A2998 RMK A01 T01410002  RH  039%=      5-min Rain = 0
KBO1 161754Z 23012KT 14/00 A2998 RMK A01 T01400003  RH  039%=      5-min Rain = 0
KBO1 161755Z 23011KT 14/00 A2998 RMK A01 T01400003  RH  039%=      5-min Rain = 0
KBO1 161756Z 22011G16KT 14/00 A2998 RMK A01 T01410003  RH  039%=      5-min Rain = 0
KBO1 161757Z 23014KT 14/00 A2998 RMK A01 T014200-0  RH  038%=      5-min Rain = 0
KBO1 161758Z 24011KT 14/00 A2998 RMK A01 T01410000  RH  038%=      5-min Rain = 0
KBO1 161759Z 24013KT 14/00 A2998 RMK A01 T01410001  RH  038%=      5-min Rain = 0
KBO1 161800Z 23011KT 14/M00 A2998 RMK A01 T01421001  RH  037%=      5-min Rain = 0
KBO1 161801Z 24012KT 14/M00 A2998 RMK A01 T01411002  RH  037%=      5-min Rain = 0
KBO1 161802Z 23010KT 14/M00 A2998 RMK A01 T01411002  RH  038%=      5-min Rain = 0
KBO1 161803Z 22011KT 14/00 A2998 RMK A01 T01410000  RH  038%=      5-min Rain = 0
KBO1 161804Z 22012KT 14/00 A2998 RMK A01 T014200-0  RH  038%=      5-min Rain = 0
KBO1 161805Z 24010KT 14/M00 A2998 RMK A01 T01421004  RH  037%=      5-min Rain = 0
KBO1 161806Z 23012KT 14/M00 A2998 RMK A01 T01411003  RH  037%=      5-min Rain = 0
KBO1 161807Z 23012KT 14/M00 A2998 RMK A01 T01411003  RH  037%=      5-min Rain = 0
KBO1 161808Z 22014KT 14/M01 A2998 RMK A01 T01401005  RH  037%=      5-min Rain = 0
KBO1 161809Z 23012KT 14/M01 A2998 RMK A01 T01421006  RH  036%=      5-min Rain = 0
KBO1 161810Z 23011KT 14/M00 A2998 RMK A01 T01421004  RH  037%=      5-min Rain = 0
KBO1 161811Z 23012KT 14/00 A2998 RMK A01 T01440001  RH  037%=      5-min Rain = 0
KBO1 161812Z 23012KT 15/00 A2997 RMK A01 T014700-0  RH  036%=      5-min Rain = 0
KBO1 161813Z 23010KT 15/M00 A2997 RMK A01 T01471003  RH  036%=      5-min Rain = 0
KBO1 161814Z 24011KT 15/M00 A2997 RMK A01 T01481001  RH  036%=      5-min Rain = 0
KBO1 161815Z 25010KT 15/M00 A2997 RMK A01 T01491004  RH  035%=      5-min Rain = 0
KBO1 161816Z 23012KT 15/M00 A2997 RMK A01 T01501004  RH  035%=      5-min Rain = 0
KBO1 161817Z 22013KT 15/M01 A2997 RMK A01 T01501007  RH  034%=      5-min Rain = 0
KBO1 161818Z 23014KT 15/M01 A2997 RMK A01 T01491011  RH  033%=      5-min Rain = 0
KBO1 161819Z 24012KT 15/M01 A2997 RMK A01 T01481008  RH  034%=      5-min Rain = 0
KBO1 161820Z 22012KT 15/M01 A2997 RMK A01 T01471006  RH  035%=      5-min Rain = 0
KBO1 161821Z 24013KT 15/M01 A2997 RMK A01 T01471009  RH  034%=      5-min Rain = 0
KBO1 161822Z 24014KT 15/M01 A2997 RMK A01 T01481009  RH  034%=      5-min Rain = 0
KBO1 161823Z 24014KT 15/M01 A2997 RMK A01 T01491012  RH  033%=      5-min Rain = 0
KBO1 161824Z 24011KT 15/M01 A2997 RMK A01 T01481014  RH  033%=      5-min Rain = 0
KBO1 161825Z 24009KT 15/M01 A2997 RMK A01 T01481010  RH  034%=      5-min Rain = 0
KBO1 161826Z 23012KT 15/M01 A2996 RMK A01 T01491011  RH  033%=      5-min Rain = 0
KBO1 161827Z 23011KT 15/M01 A2996 RMK A01 T01501013  RH  033%=      5-min Rain = 0
KBO1 161828Z 24011KT 15/M01 A2996 RMK A01 T01501012  RH  033%=      5-min Rain = 0
KBO1 161829Z 24013KT 15/M01 A2996 RMK A01 T01521012  RH  032%=      5-min Rain = 0
KBO1 161830Z 24013KT 15/M02 A2996 RMK A01 T01531017  RH  031%=      5-min Rain = 0
KBO1 161831Z 23013KT 15/M02 A2996 RMK A01 T01531022  RH  030%=      5-min Rain = 0
KBO1 161832Z 23011KT 15/M02 A2996 RMK A01 T01541021  RH  030%=      5-min Rain = 0
KBO1 161833Z 23011KT 15/M02 A2996 RMK A01 T01531019  RH  031%=      5-min Rain = 0
KBO1 161834Z 24010KT 15/M02 A2996 RMK A01 T01541020  RH  030%=      5-min Rain = 0
KBO1 161835Z 25012KT 15/M02 A2996 RMK A01 T01541018  RH  031%=      5-min Rain = 0
KBO1 161836Z 24013KT 16/M03 A2996 RMK A01 T01551025  RH  029%=      5-min Rain = 0
KBO1 161837Z 25010KT 16/M03 A2996 RMK A01 T01551026  RH  029%=      5-min Rain = 0
KBO1 161838Z 24012KT 16/M03 A2996 RMK A01 T01551027  RH  028%=      5-min Rain = 0
KBO1 161839Z 22012KT 16/M03 A2996 RMK A01 T01561029  RH  028%=      5-min Rain = 0
KBO1 161840Z 24011KT 16/M03 A2996 RMK A01 T01561027  RH  028%=      5-min Rain = 0
KBO1 161841Z 24012KT 16/M03 A2996 RMK A01 T01571033  RH  027%=      5-min Rain = 0
KBO1 161842Z 23012KT 16/M04 A2996 RMK A01 T01571035  RH  027%=      5-min Rain = 0
KBO1 161843Z 23012KT 16/M03 A2995 RMK A01 T01571034  RH  027%=      5-min Rain = 0
KBO1 161844Z 23012KT 16/M04 A2996 RMK A01 T01581039  RH  026%=      5-min Rain = 0
KBO1 161845Z 23012KT 16/M03 A2995 RMK A01 T01591033  RH  027%=      5-min Rain = 0
KBO1 161846Z 24011KT 16/M02 A2995 RMK A01 T01601023  RH  028%=      5-min Rain = 0
KBO1 161847Z 23011KT 16/M03 A2995 RMK A01 T01611026  RH  028%=      5-min Rain = 0
KBO1 161848Z 25011G16KT 16/M03 A2995 RMK A01 T01591026  RH  028%=      5-min Rain = 0
KBO1 161849Z 23015KT 16/M02 A2995 RMK A01 T01601022  RH  029%=      5-min Rain = 0
KBO1 161850Z 23014KT 16/M03 A2995 RMK A01 T01611027  RH  027%=      5-min Rain = 0
KBO1 161851Z 23011KT 16/M03 A2995 RMK A01 T01611028  RH  027%=      5-min Rain = 0
KBO1 161852Z 25012KT 16/M04 A2995 RMK A01 T01621035  RH  026%=      5-min Rain = 0
KBO1 161853Z 24012KT 16/M04 A2995 RMK A01 T01621039  RH  025%=      5-min Rain = 0
KBO1 161854Z 24013KT 16/M04 A2995 RMK A01 T01621035  RH  026%=      5-min Rain = 0
KBO1 161855Z 25012KT 16/M03 A2995 RMK A01 T01621030  RH  027%=      5-min Rain = 0
KBO1 161856Z 25009G15KT 16/M03 A2995 RMK A01 T01601027  RH  028%=      5-min Rain = 0
KBO1 161857Z 25015KT 16/M04 A2995 RMK A01 T01601035  RH  026%=      5-min Rain = 0
KBO1 161858Z 25014KT 16/M04 A2995 RMK A01 T01601040  RH  025%=      5-min Rain = 0
KBO1 161859Z 23010G15KT 16/M03 A2995 RMK A01 T01601029  RH  027%=      5-min Rain = 0
KBO1 161900Z 24010KT 16/M02 A2995 RMK A01 T01591024  RH  028%=      5-min Rain = 0
KBO1 161901Z 25015KT 16/M03 A2995 RMK A01 T01601029  RH  027%=      5-min Rain = 0
KBO1 161902Z 24012KT 16/M04 A2995 RMK A01 T01601037  RH  025%=      5-min Rain = 0
KBO1 161903Z 23010G15KT 16/M03 A2994 RMK A01 T01621026  RH  027%=      5-min Rain = 0
KBO1 161904Z 22013KT 17/M03 A2994 RMK A01 T01661032  RH  026%=      5-min Rain = 0
KBO1 161905Z 22015KT 17/M04 A2994 RMK A01 T01651039  RH  024%=      5-min Rain = 0
KBO1 161906Z 22013KT 17/M04 A2994 RMK A01 T01651043  RH  024%=      5-min Rain = 0
KBO1 161907Z 22012KT 16/M04 A2994 RMK A01 T01641037  RH  025%=      5-min Rain = 0
KBO1 161908Z 24014KT 16/M04 A2994 RMK A01 T01621038  RH  025%=      5-min Rain = 0
KBO1 161909Z 23011KT 17/M04 A2994 RMK A01 T01651037  RH  025%=      5-min Rain = 0
KBO1 161910Z 24010KT 17/M04 A2994 RMK A01 T01671039  RH  024%=      5-min Rain = 0
KBO1 161911Z 24009KT 17/M03 A2994 RMK A01 T01661033  RH  025%=      5-min Rain = 0
KBO1 161912Z 25012KT 17/M03 A2994 RMK A01 T01661030  RH  026%=      5-min Rain = 0
KBO1 161913Z 25011KT 17/M03 A2994 RMK A01 T01661031  RH  026%=      5-min Rain = 0
KBO1 161914Z 25013KT 17/M03 A2994 RMK A01 T01671032  RH  025%=      5-min Rain = 0
KBO1 161915Z 24015KT 17/M04 A2994 RMK A01 T01681037  RH  024%=      5-min Rain = 0
KBO1 161916Z 24012KT 17/M04 A2994 RMK A01 T01661037  RH  025%=      5-min Rain = 0
KBO1 161917Z 24011KT 17/M04 A2994 RMK A01 T01661039  RH  024%=      5-min Rain = 0
KBO1 161918Z 24013KT 17/M04 A2994 RMK A01 T01651038  RH  025%=      5-min Rain = 0
KBO1 161919Z 24011KT 16/M04 A2994 RMK A01 T01631037  RH  025%=      5-min Rain = 0
KBO1 161920Z 23012KT 16/M03 A2994 RMK A01 T01621034  RH  026%=      5-min Rain = 0
KBO1 161921Z 22013KT 16/M03 A2994 RMK A01 T01641027  RH  027%=      5-min Rain = 0
KBO1 161922Z 23011KT 17/M03 A2994 RMK A01 T01651032  RH  026%=      5-min Rain = 0
KBO1 161923Z 22011KT 17/M03 A2994 RMK A01 T01661030  RH  026%=      5-min Rain = 0
KBO1 161924Z 23012KT 17/M03 A2994 RMK A01 T01671032  RH  025%=      5-min Rain = 0
KBO1 161925Z 22011KT 17/M03 A2994 RMK A01 T01651030  RH  026%=      5-min Rain = 0
KBO1 161926Z 23014KT 17/M03 A2993 RMK A01 T01661025  RH  027%=      5-min Rain = 0
KBO1 161927Z 25011KT 17/M03 A2994 RMK A01 T01661027  RH  027%=      5-min Rain = 0
KBO1 161928Z 22013KT 17/M03 A2994 RMK A01 T01661028  RH  026%=      5-min Rain = 0
KBO1 161929Z 23013KT 17/M03 A2994 RMK A01 T01651033  RH  026%=      5-min Rain = 0
KBO1 161930Z 23010KT 16/M03 A2994 RMK A01 T01641030  RH  026%=      5-min Rain = 0
KBO1 161931Z 22014KT 17/M03 A2993 RMK A01 T01651029  RH  026%=      5-min Rain = 0
KBO1 161932Z 22013KT 17/M03 A2994 RMK A01 T01661034  RH  025%=      5-min Rain = 0
KBO1 161933Z 22011KT 17/M04 A2994 RMK A01 T01651035  RH  025%=      5-min Rain = 0
KBO1 161934Z 24012KT 17/M03 A2993 RMK A01 T01681034  RH  025%=      5-min Rain = 0
KBO1 161935Z 23010KT 17/M04 A2993 RMK A01 T01671037  RH  024%=      5-min Rain = 0
KBO1 161936Z 25012KT 17/M03 A2993 RMK A01 T01651033  RH  026%=      5-min Rain = 0
KBO1 161937Z 25011KT 17/M03 A2993 RMK A01 T01661030  RH  026%=      5-min Rain = 0
KBO1 161938Z 24010KT 17/M03 A2993 RMK A01 T01661029  RH  026%=      5-min Rain = 0
KBO1 161939Z 24016KT 17/M03 A2993 RMK A01 T01671030  RH  026%=      5-min Rain = 0
KBO1 161940Z 24014KT 17/M03 A2993 RMK A01 T01661034  RH  025%=      5-min Rain = 0
KBO1 161941Z 24012KT 17/M04 A2993 RMK A01 T01651038  RH  025%=      5-min Rain = 0
KBO1 161942Z 23010KT 16/M04 A2993 RMK A01 T01641035  RH  025%=      5-min Rain = 0
KBO1 161943Z 22011KT 17/M04 A2993 RMK A01 T01651040  RH  024%=      5-min Rain = 0
KBO1 161944Z 22012KT 17/M05 A2993 RMK A01 T01651047  RH  023%=      5-min Rain = 0
KBO1 161945Z 21010KT 17/M05 A2993 RMK A01 T01661047  RH  023%=      5-min Rain = 0
KBO1 161946Z 22014KT 17/M04 A2993 RMK A01 T01671041  RH  024%=      5-min Rain = 0
KBO1 161947Z 22013KT 17/M05 A2993 RMK A01 T01671045  RH  023%=      5-min Rain = 0
KBO1 161948Z 21012KT 17/M05 A2993 RMK A01 T01671046  RH  023%=      5-min Rain = 0
KBO1 161949Z 23013KT 17/M04 A2993 RMK A01 T01681043  RH  023%=      5-min Rain = 0
KBO1 161950Z 22012KT 17/M04 A2993 RMK A01 T01691038  RH  024%=      5-min Rain = 0
KBO1 161951Z 21014KT 17/M04 A2993 RMK A01 T01691040  RH  024%=      5-min Rain = 0
KBO1 161952Z 23015KT 17/M04 A2993 RMK A01 T01691042  RH  023%=      5-min Rain = 0
KBO1 161953Z 23014KT 17/M05 A2993 RMK A01 T01691048  RH  022%=      5-min Rain = 0
KBO1 161954Z 24012KT 17/M06 A2993 RMK A01 T01671056  RH  021%=      5-min Rain = 0
KBO1 161955Z 23011KT 17/M06 A2993 RMK A01 T01651058  RH  021%=      5-min Rain = 0
KBO1 161956Z 23009KT 17/M05 A2993 RMK A01 T01651050  RH  023%=      5-min Rain = 0
KBO1 161957Z 24010G15KT 17/M04 A2993 RMK A01 T01661044  RH  023%=      5-min Rain = 0
KBO1 161958Z 24013KT 17/M05 A2993 RMK A01 T01661045  RH  023%=      5-min Rain = 0
KBO1 161959Z 24012KT 17/M04 A2993 RMK A01 T01671042  RH  024%=      5-min Rain = 0
KBO1 162000Z 24010KT 17/M04 A2993 RMK A01 T01681038  RH  024%=      5-min Rain = 0
KBO1 162001Z 24011KT 17/M04 A2992 RMK A01 T01681039  RH  024%=      5-min Rain = 0
KBO1 162002Z 23012KT 17/M04 A2992 RMK A01 T01691036  RH  024%=      5-min Rain = 0
KBO1 162003Z 23012KT 17/M04 A2992 RMK A01 T01701044  RH  023%=      5-min Rain = 0
KBO1 162004Z 21013KT 17/M05 A2992 RMK A01 T01711047  RH  022%=      5-min Rain = 0
KBO1 162005Z 22011KT 17/M05 A2992 RMK A01 T01721051  RH  021%=      5-min Rain = 0
KBO1 162006Z 23011KT 17/M04 A2992 RMK A01 T01731042  RH  023%=      5-min Rain = 0
KBO1 162007Z 23010KT 18/M04 A2992 RMK A01 T01761035  RH  023%=      5-min Rain = 0
KBO1 162008Z 23011KT 18/M04 A2992 RMK A01 T01781036  RH  023%=      5-min Rain = 0
KBO1 162009Z 23013KT 18/M04 A2992 RMK A01 T01791038  RH  023%=      5-min Rain = 0
KBO1 162010Z 24015G20KT 18/M04 A2992 RMK A01 T01781040  RH  022%=      5-min Rain = 0
KBO1 162011Z 24014KT 18/M04 A2992 RMK A01 T01771037  RH  023%=      5-min Rain = 0
KBO1 162012Z 24014KT 17/M04 A2992 RMK A01 T01741040  RH  023%=      5-min Rain = 0
KBO1 162013Z 23013KT 17/M04 A2992 RMK A01 T01721041  RH  023%=      5-min Rain = 0
KBO1 162014Z 22012KT 17/M04 A2992 RMK A01 T01711041  RH  023%=      5-min Rain = 0
KBO1 162015Z 22014KT 17/M04 A2991 RMK A01 T01741040  RH  023%=      5-min Rain = 0
KBO1 162016Z 23017KT 18/M05 A2991 RMK A01 T01761045  RH  022%=      5-min Rain = 0
KBO1 162017Z 24013KT 17/M05 A2992 RMK A01 T01731045  RH  022%=      5-min Rain = 0
KBO1 162018Z 25014KT 17/M05 A2992 RMK A01 T01721049  RH  022%=      5-min Rain = 0
KBO1 162019Z 24010KT 17/M05 A2991 RMK A01 T01701051  RH  022%=      5-min Rain = 0
KBO1 162020Z 24013KT 17/M04 A2991 RMK A01 T01711043  RH  023%=      5-min Rain = 0
KBO1 162021Z 24014KT 17/M04 A2991 RMK A01 T01741040  RH  023%=      5-min Rain = 0
KBO1 162022Z 24014KT 18/M04 A2991 RMK A01 T01761039  RH  023%=      5-min Rain = 0
KBO1 162023Z 24011KT 18/M04 A2991 RMK A01 T01751044  RH  022%=      5-min Rain = 0
KBO1 162024Z 24012KT 17/M05 A2991 RMK A01 T01731045  RH  022%=      5-min Rain = 0
KBO1 162025Z 24011KT 17/M05 A2991 RMK A01 T01721047  RH  022%=      5-min Rain = 0
KBO1 162026Z 25009KT 17/M04 A2991 RMK A01 T01711043  RH  023%=      5-min Rain = 0
KBO1 162027Z 23013G18KT 17/M04 A2991 RMK A01 T01731042  RH  023%=      5-min Rain = 0
KBO1 162028Z 23015KT 18/M04 A2991 RMK A01 T01751044  RH  022%=      5-min Rain = 0
KBO1 162029Z 24011KT 18/M05 A2991 RMK A01 T01751045  RH  022%=      5-min Rain = 0
KBO1 162030Z 24014KT 18/M04 A2991 RMK A01 T01751042  RH  023%=      5-min Rain = 0
KBO1 162031Z 23012KT 18/M04 A2991 RMK A01 T01751043  RH  022%=      5-min Rain = 0
KBO1 162032Z 23013KT 18/M05 A2991 RMK A01 T01761047  RH  022%=      5-min Rain = 0
KBO1 162033Z 24014KT 18/M05 A2991 RMK A01 T01761046  RH  022%=      5-min Rain = 0
KBO1 162034Z 23014KT 18/M05 A2991 RMK A01 T01761046  RH  022%=      5-min Rain = 0
KBO1 162035Z 24013KT 18/M05 A2991 RMK A01 T01761048  RH  021%=      5-min Rain = 0
KBO1 162036Z 23010KT 17/M05 A2991 RMK A01 T01731052  RH  021%=      5-min Rain = 0
KBO1 162037Z 24011KT 17/M05 A2991 RMK A01 T01711052  RH  021%=      5-min Rain = 0
KBO1 162038Z 23009G14KT 17/M05 A2991 RMK A01 T01711048  RH  022%=      5-min Rain = 0
KBO1 162039Z 22015KT 18/M05 A2991 RMK A01 T01751046  RH  022%=      5-min Rain = 0
KBO1 162040Z 22016KT 18/M05 A2991 RMK A01 T01761048  RH  021%=      5-min Rain = 0
KBO1 162041Z 22014KT 18/M05 A2991 RMK A01 T01751053  RH  021%=      5-min Rain = 0
KBO1 162042Z 21011KT 17/M05 A2991 RMK A01 T01741053  RH  021%=      5-min Rain = 0
KBO1 162043Z 22011KT 17/M06 A2991 RMK A01 T01741055  RH  020%=      5-min Rain = 0
KBO1 162044Z 21012KT 18/M05 A2991 RMK A01 T01751051  RH  021%=      5-min Rain = 0
KBO1 162045Z 21012KT 18/M05 A2991 RMK A01 T01761053  RH  021%=      5-min Rain = 0
KBO1 162046Z 22010KT 18/M06 A2991 RMK A01 T01761055  RH  020%=      5-min Rain = 0
KBO1 162047Z 23014KT 18/M05 A2991 RMK A01 T01751052  RH  021%=      5-min Rain = 0
KBO1 162048Z 22014KT 18/M05 A2991 RMK A01 T01761050  RH  021%=      5-min Rain = 0
KBO1 162049Z 24013KT 18/M05 A2991 RMK A01 T01761047  RH  021%=      5-min Rain = 0
KBO1 162050Z 22013KT 18/M05 A2991 RMK A01 T01761049  RH  021%=      5-min Rain = 0
KBO1 162051Z 24010KT 18/M05 A2991 RMK A01 T01751051  RH  021%=      5-min Rain = 0
KBO1 162052Z 23013G26KT 17/M05 A299 RMK A01 T01741048  RH  022%=      5-min Rain = 0
KBO1 162053Z 22011KT 18/M05 A299 RMK A01 T01771046  RH  021%=      5-min Rain = 0
KBO1 162054Z 23014KT 18/M05 A2991 RMK A01 T01811048  RH  021%=      5-min Rain = 0
KBO1 162055Z 23013KT 18/M06 A299 RMK A01 T01791055  RH  020%=      5-min Rain = 0
KBO1 162056Z 23012KT 18/M06 A299 RMK A01 T01771057  RH  020%=      5-min Rain = 0
KBO1 162057Z 22012KT 18/M05 A299 RMK A01 T01771054  RH  020%=      5-min Rain = 0
KBO1 162058Z 21015KT 18/M06 A299 RMK A01 T01781060  RH  019%=      5-min Rain = 0
KBO1 162059Z 22014KT 18/M06 A299 RMK A01 T01781061  RH  019%=      5-min Rain = 0
KBO1 162100Z 22013KT 18/M05 A299 RMK A01 T01781051  RH  021%=      5-min Rain = 0
KBO1 162101Z 22011KT 18/M05 A299 RMK A01 T01761049  RH  021%=      5-min Rain = 0
KBO1 162102Z 23008KT 18/M05 A299 RMK A01 T01751052  RH  021%=      5-min Rain = 0
KBO1 162103Z 22010G16KT 17/M05 A299 RMK A01 T01731049  RH  022%=      5-min Rain = 0
KBO1 162104Z 22012G17KT 18/M05 A299 RMK A01 T01761048  RH  021%=      5-min Rain = 0
KBO1 162105Z 22016KT 18/M05 A299 RMK A01 T01791054  RH  020%=      5-min Rain = 0
KBO1 162106Z 22014KT 18/M06 A299 RMK A01 T01781056  RH  020%=      5-min Rain = 0
KBO1 162107Z 22012G17KT 18/M06 A299 RMK A01 T01771057  RH  020%=      5-min Rain = 0
KBO1 162108Z 22014KT 18/M05 A299 RMK A01 T01781051  RH  021%=      5-min Rain = 0
KBO1 162109Z 22015KT 18/M05 A299 RMK A01 T01781049  RH  021%=      5-min Rain = 0
KBO1 162110Z 21016KT 18/M05 A299 RMK A01 T01771050  RH  021%=      5-min Rain = 0
KBO1 162111Z 22015KT 18/M05 A299 RMK A01 T01751050  RH  021%=      5-min Rain = 0
KBO1 162112Z 22012KT 18/M05 A299 RMK A01 T01751050  RH  021%=      5-min Rain = 0
KBO1 162113Z 22011G16KT 17/M05 A299 RMK A01 T01731050  RH  021%=      5-min Rain = 0
KBO1 162114Z 22013KT 17/M06 A299 RMK A01 T01731058  RH  020%=      5-min Rain = 0
KBO1 162115Z 22012KT 17/M06 A299 RMK A01 T01731060  RH  020%=      5-min Rain = 0
KBO1 162116Z 22011KT 17/M06 A299 RMK A01 T01741055  RH  021%=      5-min Rain = 0
KBO1 162117Z 22013KT 17/M05 A2989 RMK A01 T01741050  RH  021%=      5-min Rain = 0
KBO1 162118Z 23013KT 17/M05 A2989 RMK A01 T01741050  RH  021%=      5-min Rain = 0
KBO1 162119Z 22017KT 17/M05 A2989 RMK A01 T01741046  RH  022%=      5-min Rain = 0
KBO1 162120Z 23014KT 17/M05 A2989 RMK A01 T01731046  RH  022%=      5-min Rain = 0
KBO1 162121Z 23011KT 17/M05 A2989 RMK A01 T01731046  RH  022%=      5-min Rain = 0
KBO1 162122Z 24014KT 17/M05 A2989 RMK A01 T01741047  RH  022%=      5-min Rain = 0
KBO1 162123Z 24010KT 17/M05 A2989 RMK A01 T01741051  RH  021%=      5-min Rain = 0
KBO1 162124Z 22011KT 17/M05 A2989 RMK A01 T01741047  RH  022%=      5-min Rain = 0
KBO1 162125Z 22012KT 18/M04 A2989 RMK A01 T01781042  RH  022%=      5-min Rain = 0
KBO1 162126Z 23013KT 18/M05 A2989 RMK A01 T01801047  RH  021%=      5-min Rain = 0
KBO1 162127Z 21011KT 18/M05 A2989 RMK A01 T01761054  RH  020%=      5-min Rain = 0
KBO1 162128Z 20014G20KT 18/M05 A2989 RMK A01 T01761049  RH  021%=      5-min Rain = 0
KBO1 162129Z 21016G21KT 18/M05 A2989 RMK A01 T01791046  RH  021%=      5-min Rain = 0
KBO1 162130Z 21016G21KT 18/M05 A2989 RMK A01 T01791049  RH  021%=      5-min Rain = 0
KBO1 162131Z 21014KT 18/M05 A2989 RMK A01 T01761054  RH  020%=      5-min Rain = 0
KBO1 162132Z 22017KT 18/M05 A2989 RMK A01 T01751054  RH  020%=      5-min Rain = 0
KBO1 162133Z 22014KT 18/M05 A2989 RMK A01 T01751052  RH  021%=      5-min Rain = 0
KBO1 162134Z 21013KT 18/M05 A2989 RMK A01 T01761050  RH  021%=      5-min Rain = 0
KBO1 162135Z 22013KT 18/M05 A2989 RMK A01 T01761054  RH  020%=      5-min Rain = 0
KBO1 162136Z 22011KT 18/M06 A2989 RMK A01 T01751055  RH  020%=      5-min Rain = 0
KBO1 162137Z 22017KT 17/M05 A2989 RMK A01 T01741054  RH  021%=      5-min Rain = 0
KBO1 162138Z 21016KT 17/M05 A2989 RMK A01 T01741054  RH  021%=      5-min Rain = 0
KBO1 162139Z 22016KT 17/M06 A2989 RMK A01 T01741055  RH  021%=      5-min Rain = 0
KBO1 162140Z 23013KT 17/M06 A2989 RMK A01 T01731056  RH  020%=      5-min Rain = 0
KBO1 162141Z 23012KT 17/M05 A2989 RMK A01 T01731054  RH  021%=      5-min Rain = 0
KBO1 162142Z 22015KT 17/M05 A2989 RMK A01 T01731053  RH  021%=      5-min Rain = 0
KBO1 162143Z 23013KT 17/M05 A2989 RMK A01 T01741053  RH  021%=      5-min Rain = 0
KBO1 162144Z 22012KT 17/M05 A2989 RMK A01 T01721054  RH  021%=      5-min Rain = 0
KBO1 162145Z 22013KT 17/M05 A2989 RMK A01 T01721053  RH  021%=      5-min Rain = 0
KBO1 162146Z 21015KT 17/M05 A2989 RMK A01 T01741053  RH  021%=      5-min Rain = 0
KBO1 162147Z 20014KT 18/M05 A2989 RMK A01 T01751053  RH  021%=      5-min Rain = 0
KBO1 162148Z 21011KT 18/M06 A2989 RMK A01 T01751055  RH  020%=      5-min Rain = 0
KBO1 162149Z 21013KT 17/M06 A2989 RMK A01 T01741056  RH  020%=      5-min Rain = 0
KBO1 162150Z 19013KT 18/M05 A2989 RMK A01 T01751047  RH  022%=      5-min Rain = 0
KBO1 162151Z 21015KT 18/M05 A2989 RMK A01 T01751050  RH  021%=      5-min Rain = 0
KBO1 162152Z 23012KT 18/M05 A2989 RMK A01 T01751053  RH  021%=      5-min Rain = 0
KBO1 162153Z 24011KT 18/M06 A2989 RMK A01 T01761055  RH  020%=      5-min Rain = 0
KBO1 162154Z 24010KT 17/M05 A2989 RMK A01 T01741053  RH  021%=      5-min Rain = 0
KBO1 162155Z 22012KT 17/M05 A2989 RMK A01 T01741051  RH  021%=      5-min Rain = 0
KBO1 162156Z 19013KT 18/M05 A2989 RMK A01 T01751050  RH  021%=      5-min Rain = 0
KBO1 162157Z 22015KT 18/M05 A2989 RMK A01 T01761047  RH  021%=      5-min Rain = 0
KBO1 162158Z 21016KT 18/M05 A2989 RMK A01 T01781049  RH  021%=      5-min Rain = 0
KBO1 162159Z 21015KT 18/M05 A2989 RMK A01 T01761053  RH  021%=      5-min Rain = 0
KBO1 162200Z 21015KT 18/M05 A2989 RMK A01 T01751053  RH  021%=      5-min Rain = 0
KBO1 162201Z 20014KT 17/M06 A2989 RMK A01 T01741058  RH  020%=      5-min Rain = 0
KBO1 162202Z 20012KT 17/M06 A2989 RMK A01 T01731061  RH  020%=      5-min Rain = 0
KBO1 162203Z 22015KT 17/M06 A2989 RMK A01 T01741055  RH  020%=      5-min Rain = 0
KBO1 162204Z 22015KT 17/M05 A2989 RMK A01 T01741051  RH  021%=      5-min Rain = 0
KBO1 162205Z 21014KT 17/M05 A2989 RMK A01 T01721050  RH  022%=      5-min Rain = 0
KBO1 162206Z 22011KT 17/M05 A2989 RMK A01 T01711047  RH  022%=      5-min Rain = 0
KBO1 162207Z 23012KT 17/M05 A2989 RMK A01 T01721048  RH  022%=      5-min Rain = 0
KBO1 162208Z 22015KT 17/M05 A2989 RMK A01 T01731050  RH  021%=      5-min Rain = 0
KBO1 162209Z 21016KT 18/M05 A2989 RMK A01 T01751050  RH  021%=      5-min Rain = 0
KBO1 162210Z 22015KT 17/M05 A2988 RMK A01 T01741052  RH  021%=      5-min Rain = 0
KBO1 162211Z 21014KT 17/M05 A2988 RMK A01 T01731050  RH  021%=      5-min Rain = 0
KBO1 162212Z 21013KT 17/M05 A2988 RMK A01 T01721050  RH  022%=      5-min Rain = 0
KBO1 162213Z 22015KT 17/M05 A2988 RMK A01 T01721048  RH  022%=      5-min Rain = 0
KBO1 162214Z 22012KT 17/M05 A2988 RMK A01 T01721050  RH  022%=      5-min Rain = 0
KBO1 162215Z 22014KT 17/M05 A2988 RMK A01 T01721047  RH  022%=      5-min Rain = 0
KBO1 162216Z 22012KT 17/M05 A2988 RMK A01 T01731049  RH  022%=      5-min Rain = 0
KBO1 162217Z 23012KT 17/M05 A2988 RMK A01 T01721047  RH  022%=      5-min Rain = 0
KBO1 162218Z 24013KT 17/M05 A2988 RMK A01 T01741048  RH  022%=      5-min Rain = 0
KBO1 162219Z 23013KT 17/M05 A2988 RMK A01 T01741054  RH  021%=      5-min Rain = 0
KBO1 162220Z 20013KT 17/M05 A2988 RMK A01 T01741050  RH  021%=      5-min Rain = 0
KBO1 162221Z 20014KT 17/M05 A2988 RMK A01 T01741049  RH  021%=      5-min Rain = 0
KBO1 162222Z 20014KT 17/M05 A2988 RMK A01 T01741051  RH  021%=      5-min Rain = 0
KBO1 162223Z 20013KT 17/M05 A2988 RMK A01 T01721051  RH  021%=      5-min Rain = 0
KBO1 162224Z 20014KT 17/M05 A2988 RMK A01 T01721048  RH  022%=      5-min Rain = 0
KBO1 162225Z 21015KT 17/M05 A2988 RMK A01 T01731046  RH  022%=      5-min Rain = 0
KBO1 162226Z 21016KT 17/M05 A2988 RMK A01 T01741046  RH  022%=      5-min Rain = 0
KBO1 162227Z 21014KT 17/M05 A2988 RMK A01 T01731050  RH  021%=      5-min Rain = 0
KBO1 162228Z 20010KT 17/M05 A2988 RMK A01 T01721048  RH  022%=      5-min Rain = 0
KBO1 162229Z 20014KT 17/M05 A2988 RMK A01 T01721047  RH  022%=      5-min Rain = 0
KBO1 162230Z 21015KT 17/M05 A2988 RMK A01 T01731051  RH  021%=      5-min Rain = 0
KBO1 162231Z 21016KT 17/M05 A2988 RMK A01 T01731051  RH  021%=      5-min Rain = 0
KBO1 162232Z 22014KT 17/M05 A2988 RMK A01 T01721054  RH  021%=      5-min Rain = 0
KBO1 162233Z 22012KT 17/M06 A2988 RMK A01 T01711055  RH  021%=      5-min Rain = 0
KBO1 162234Z 22012KT 17/M06 A2988 RMK A01 T01711055  RH  021%=      5-min Rain = 0
KBO1 162235Z 22013KT 17/M05 A2988 RMK A01 T01711050  RH  022%=      5-min Rain = 0
KBO1 162236Z 22011KT 17/M05 A2988 RMK A01 T01721045  RH  022%=      5-min Rain = 0
KBO1 162237Z 21012KT 17/M04 A2988 RMK A01 T01741040  RH  023%=      5-min Rain = 0
KBO1 162238Z 21012KT 18/M04 A2988 RMK A01 T01751039  RH  023%=      5-min Rain = 0
KBO1 162239Z 22014KT 18/M04 A2988 RMK A01 T01751042  RH  022%=      5-min Rain = 0
KBO1 162240Z 21014KT 17/M04 A2988 RMK A01 T01741042  RH  023%=      5-min Rain = 0
KBO1 162241Z 21015KT 17/M04 A2988 RMK A01 T01731041  RH  023%=      5-min Rain = 0
KBO1 162242Z 21016KT 17/M04 A2988 RMK A01 T01721043  RH  023%=      5-min Rain = 0
KBO1 162243Z 21014KT 17/M04 A2988 RMK A01 T01701043  RH  023%=      5-min Rain = 0
KBO1 162244Z 20013KT 17/M04 A2988 RMK A01 T01691040  RH  024%=      5-min Rain = 0
KBO1 162245Z 21011KT 17/M04 A2988 RMK A01 T01711039  RH  024%=      5-min Rain = 0
KBO1 162246Z 21015KT 17/M04 A2988 RMK A01 T01721038  RH  023%=      5-min Rain = 0
KBO1 162247Z 21016KT 17/M04 A2988 RMK A01 T01721041  RH  023%=      5-min Rain = 0
KBO1 162248Z 21015KT 17/M04 A2988 RMK A01 T01701040  RH  023%=      5-min Rain = 0
KBO1 162249Z 21016KT 17/M04 A2988 RMK A01 T01691040  RH  024%=      5-min Rain = 0
KBO1 162250Z 21015KT 17/M04 A2988 RMK A01 T01691038  RH  024%=      5-min Rain = 0
KBO1 162251Z 22016KT 17/M04 A2988 RMK A01 T01681039  RH  024%=      5-min Rain = 0
KBO1 162252Z 21014KT 17/M04 A2988 RMK A01 T01681039  RH  024%=      5-min Rain = 0
KBO1 162253Z 21016KT 17/M04 A2988 RMK A01 T01681038  RH  024%=      5-min Rain = 0
KBO1 162254Z 22016KT 17/M04 A2988 RMK A01 T01671039  RH  024%=      5-min Rain = 0
KBO1 162255Z 22014KT 17/M04 A2988 RMK A01 T01661039  RH  024%=      5-min Rain = 0
KBO1 162256Z 21012KT 17/M04 A2988 RMK A01 T01661037  RH  025%=      5-min Rain = 0
KBO1 162257Z 21012KT 17/M04 A2988 RMK A01 T01671036  RH  025%=      5-min Rain = 0
KBO1 162258Z 20014KT 17/M04 A2988 RMK A01 T01671038  RH  024%=      5-min Rain = 0
KBO1 162259Z 21016KT 17/M04 A2988 RMK A01 T01661040  RH  024%=      5-min Rain = 0
KBO1 162300Z 21014KT 17/M04 A2988 RMK A01 T01651041  RH  024%=      5-min Rain = 0
KBO1 162301Z 21014KT 17/M04 A2988 RMK A01 T01651041  RH  024%=      5-min Rain = 0
KBO1 162302Z 20016KT 17/M04 A2988 RMK A01 T01651040  RH  024%=      5-min Rain = 0
KBO1 162303Z 21014KT 17/M04 A2988 RMK A01 T01651041  RH  024%=      5-min Rain = 0
KBO1 162304Z 20012KT 17/M04 A2988 RMK A01 T01651040  RH  024%=      5-min Rain = 0
KBO1 162305Z 21013KT 17/M04 A2988 RMK A01 T01651039  RH  024%=      5-min Rain = 0
KBO1 162306Z 20016KT 17/M04 A2988 RMK A01 T01651037  RH  025%=      5-min Rain = 0
KBO1 162307Z 21013KT 17/M04 A2988 RMK A01 T01651035  RH  025%=      5-min Rain = 0
KBO1 162308Z 20014KT 17/M04 A2988 RMK A01 T01651035  RH  025%=      5-min Rain = 0
KBO1 162309Z 21014KT 17/M04 A2988 RMK A01 T01651038  RH  025%=      5-min Rain = 0
KBO1 162310Z 20015KT 16/M04 A2988 RMK A01 T01641040  RH  024%=      5-min Rain = 0
KBO1 162311Z 21015KT 16/M04 A2988 RMK A01 T01631040  RH  025%=      5-min Rain = 0
KBO1 162312Z 21015KT 16/M04 A2988 RMK A01 T01621039  RH  025%=      5-min Rain = 0
KBO1 162313Z 21013KT 16/M04 A2988 RMK A01 T01621040  RH  025%=      5-min Rain = 0
KBO1 162314Z 21014KT 16/M04 A2988 RMK A01 T01631039  RH  025%=      5-min Rain = 0
KBO1 162315Z 20014KT 16/M04 A2988 RMK A01 T01631039  RH  025%=      5-min Rain = 0
KBO1 162316Z 20013KT 16/M04 A2988 RMK A01 T01631038  RH  025%=      5-min Rain = 0
KBO1 162317Z 20015KT 16/M04 A2988 RMK A01 T01631040  RH  025%=      5-min Rain = 0
KBO1 162318Z 21013G18KT 16/M04 A2988 RMK A01 T01631040  RH  025%=      5-min Rain = 0
KBO1 162319Z 21013KT 16/M04 A2988 RMK A01 T01631040  RH  025%=      5-min Rain = 0
KBO1 162320Z 20016KT 16/M04 A2988 RMK A01 T01631039  RH  025%=      5-min Rain = 0
KBO1 162321Z 20015KT 16/M04 A2988 RMK A01 T01631040  RH  025%=      5-min Rain = 0
KBO1 162322Z 21014KT 16/M04 A2988 RMK A01 T01621039  RH  025%=      5-min Rain = 0
KBO1 162323Z 20014KT 16/M04 A2988 RMK A01 T01621039  RH  025%=      5-min Rain = 0
KBO1 162324Z 20014KT 16/M04 A2988 RMK A01 T01621040  RH  025%=      5-min Rain = 0
KBO1 162325Z 20014KT 16/M04 A2988 RMK A01 T01621041  RH  025%=      5-min Rain = 0
KBO1 162326Z 21013KT 16/M04 A2988 RMK A01 T01621043  RH  024%=      5-min Rain = 0
KBO1 162327Z 21015KT 16/M04 A2988 RMK A01 T01611042  RH  025%=      5-min Rain = 0
KBO1 162328Z 21015KT 16/M04 A2988 RMK A01 T01611043  RH  024%=      5-min Rain = 0
KBO1 162329Z 20017KT 16/M04 A2988 RMK A01 T01611035  RH  026%=      5-min Rain = 0
KBO1 162330Z 19020KT 16/M03 A2988 RMK A01 T01561028  RH  028%=      5-min Rain = 0
KBO1 162331Z 19020KT 15/M03 A2988 RMK A01 T01521027  RH  029%=      5-min Rain = 0
KBO1 162332Z 19017KT 15/M03 A2988 RMK A01 T01491026  RH  030%=      5-min Rain = 0
KBO1 162333Z 19018KT 15/M02 A2988 RMK A01 T01481024  RH  030%=      5-min Rain = 0
KBO1 162334Z 19018KT 15/M02 A2988 RMK A01 T01471024  RH  031%=      5-min Rain = 0
KBO1 162335Z 19018KT 15/M02 A2988 RMK A01 T01461024  RH  031%=      5-min Rain = 0
KBO1 162336Z 19018KT 15/M02 A2988 RMK A01 T01451023  RH  031%=      5-min Rain = 0
KBO1 162337Z 19017KT 14/M02 A2988 RMK A01 T01441023  RH  031%=      5-min Rain = 0
KBO1 162338Z 19020KT 14/M02 A2988 RMK A01 T01431023  RH  032%=      5-min Rain = 0
KBO1 162339Z 19016KT 14/M02 A2988 RMK A01 T01421024  RH  032%=      5-min Rain = 0
KBO1 162340Z 19014KT 14/M02 A2988 RMK A01 T01421022  RH  032%=      5-min Rain = 0
KBO1 162341Z 20015KT 14/M02 A2988 RMK A01 T01421022  RH  032%=      5-min Rain = 0
KBO1 162342Z 20017KT 14/M02 A2988 RMK A01 T01411022  RH  032%=      5-min Rain = 0
KBO1 162343Z 20018KT 14/M02 A2987 RMK A01 T01411023  RH  032%=      5-min Rain = 0
KBO1 162344Z 20017KT 14/M02 A2988 RMK A01 T01401024  RH  032%=      5-min Rain = 0
KBO1 162345Z 20017KT 14/M02 A2988 RMK A01 T01401024  RH  032%=      5-min Rain = 0
KBO1 162346Z 20018KT 14/M03 A2988 RMK A01 T01391026  RH  032%=      5-min Rain = 0
KBO1 162347Z 20016KT 14/M03 A2988 RMK A01 T01381027  RH  032%=      5-min Rain = 0
KBO1 162348Z 19016KT 14/M03 A2988 RMK A01 T01381026  RH  032%=      5-min Rain = 0
KBO1 162349Z 20018KT 14/M03 A2988 RMK A01 T01371026  RH  032%=      5-min Rain = 0
KBO1 162350Z 19017KT 14/M03 A2988 RMK A01 T01371027  RH  032%=      5-min Rain = 0
KBO1 162351Z 19017KT 14/M03 A2988 RMK A01 T01361026  RH  032%=      5-min Rain = 0
KBO1 162352Z 20017KT 14/M03 A2988 RMK A01 T01351026  RH  033%=      5-min Rain = 0
KBO1 162353Z 19016KT 13/M03 A2988 RMK A01 T01341025  RH  033%=      5-min Rain = 0
KBO1 162354Z 19017KT 13/M02 A2988 RMK A01 T01331024  RH  033%=      5-min Rain = 0
KBO1 162355Z 19016KT 13/M02 A2988 RMK A01 T01331024  RH  034%=      5-min Rain = 0
KBO1 162356Z 20018KT 13/M02 A2988 RMK A01 T01321024  RH  034%=      5-min Rain = 0
KBO1 162357Z 19016G21KT 13/M03 A2988 RMK A01 T01311025  RH  034%=      5-min Rain = 0
KBO1 162358Z 19017KT 13/M03 A2988 RMK A01 T01301025  RH  034%=      5-min Rain = 0
KBO1 162359Z 19017KT 13/M03 A2988 RMK A01 T01291026  RH  034%=      5-min Rain = 0
KBO1 170000Z 19018KT 13/M03 A2988 RMK A01 T01281027  RH  034%=      5-min Rain = 0
KBO1 170001Z 19015G20KT 13/M03 A2988 RMK A01 T01281026  RH  034%=      5-min Rain = 0
KBO1 170002Z 19017KT 13/M03 A2988 RMK A01 T01271025  RH  035%=      5-min Rain = 0
KBO1 170003Z 19016KT 13/M03 A2988 RMK A01 T01261026  RH  035%=      5-min Rain = 0
KBO1 170004Z 19015KT 13/M03 A2988 RMK A01 T01251025  RH  035%=      5-min Rain = 0
KBO1 170005Z 19015KT 12/M03 A2988 RMK A01 T01241025  RH  035%=      5-min Rain = 0
KBO1 170006Z 20016KT 12/M03 A2988 RMK A01 T01231025  RH  035%=      5-min Rain = 0
KBO1 170007Z 19015KT 12/M03 A2988 RMK A01 T01231025  RH  036%=      5-min Rain = 0
KBO1 170008Z 19015KT 12/M03 A2988 RMK A01 T01221025  RH  036%=      5-min Rain = 0
KBO1 170009Z 19014KT 12/M02 A2988 RMK A01 T01211024  RH  036%=      5-min Rain = 0
KBO1 170010Z 20015KT 12/M02 A2987 RMK A01 T01191024  RH  037%=      5-min Rain = 0
KBO1 170011Z 20014KT 12/M03 A2987 RMK A01 T01191025  RH  037%=      5-min Rain = 0
KBO1 170012Z 20014KT 12/M02 A2987 RMK A01 T01181024  RH  037%=      5-min Rain = 0
KBO1 170013Z 20015KT 12/M02 A2988 RMK A01 T01181024  RH  037%=      5-min Rain = 0
KBO1 170014Z 20013KT 12/M02 A2988 RMK A01 T01171024  RH  037%=      5-min Rain = 0
KBO1 170015Z 20013KT 12/M02 A2988 RMK A01 T01171024  RH  037%=      5-min Rain = 0
KBO1 170016Z 20014KT 12/M02 A2988 RMK A01 T01161024  RH  037%=      5-min Rain = 0
KBO1 170017Z 20014KT 12/M02 A2988 RMK A01 T01161024  RH  038%=      5-min Rain = 0
KBO1 170018Z 20013KT 12/M02 A2988 RMK A01 T01151024  RH  038%=      5-min Rain = 0
KBO1 170019Z 20012KT 11/M02 A2988 RMK A01 T01141024  RH  038%=      5-min Rain = 0
KBO1 170020Z 20012KT 11/M02 A2988 RMK A01 T01131024  RH  038%=      5-min Rain = 0
KBO1 170021Z 20013KT 11/M02 A2988 RMK A01 T01111024  RH  039%=      5-min Rain = 0
KBO1 170022Z 20014KT 11/M03 A2987 RMK A01 T01111025  RH  039%=      5-min Rain = 0
KBO1 170023Z 20012KT 11/M03 A2987 RMK A01 T01101025  RH  039%=      5-min Rain = 0
KBO1 170024Z 20012KT 11/M03 A2987 RMK A01 T01101025  RH  039%=      5-min Rain = 0
KBO1 170025Z 20013KT 11/M03 A2987 RMK A01 T01081025  RH  039%=      5-min Rain = 0
KBO1 170026Z 20012KT 11/M03 A2987 RMK A01 T01081025  RH  039%=      5-min Rain = 0
KBO1 170027Z 20013KT 11/M03 A2987 RMK A01 T01071025  RH  039%=      5-min Rain = 0
KBO1 170028Z 20013KT 11/M03 A2987 RMK A01 T01061025  RH  040%=      5-min Rain = 0
KBO1 170029Z 20012KT 11/M03 A2987 RMK A01 T01051025  RH  040%=      5-min Rain = 0
KBO1 170030Z 20012KT 10/M03 A2987 RMK A01 T01041025  RH  040%=      5-min Rain = 0
KBO1 170031Z 20012KT 10/M03 A2987 RMK A01 T01031026  RH  040%=      5-min Rain = 0
KBO1 170032Z 20012KT 10/M03 A2987 RMK A01 T01031025  RH  041%=      5-min Rain = 0
KBO1 170033Z 20012KT 10/M03 A2987 RMK A01 T01011026  RH  041%=      5-min Rain = 0
KBO1 170034Z 20011KT 10/M03 A2987 RMK A01 T01001026  RH  041%=      5-min Rain = 0
KBO1 170035Z 20011KT 10/M03 A2987 RMK A01 T00991026  RH  042%=      5-min Rain = 0
KBO1 170036Z 20011KT 10/M03 A2987 RMK A01 T00971026  RH  042%=      5-min Rain = 0
KBO1 170037Z 20011KT 10/M03 A2987 RMK A01 T00961026  RH  042%=      5-min Rain = 0
KBO1 170038Z 20011KT 09/M03 A2987 RMK A01 T00941025  RH  043%=      5-min Rain = 0
KBO1 170039Z 20011KT 09/M03 A2987 RMK A01 T00941026  RH  043%=      5-min Rain = 0
KBO1 170040Z 20011KT 09/M03 A2987 RMK A01 T00931025  RH  043%=      5-min Rain = 0
KBO1 170041Z 20011KT 09/M03 A2987 RMK A01 T00911025  RH  044%=      5-min Rain = 0
KBO1 170042Z 20011KT 09/M03 A2987 RMK A01 T00901025  RH  044%=      5-min Rain = 0
KBO1 170043Z 20011KT 09/M03 A2987 RMK A01 T00891026  RH  044%=      5-min Rain = 0
KBO1 170044Z 20011KT 09/M03 A2987 RMK A01 T00891025  RH  045%=      5-min Rain = 0
KBO1 170045Z 20011KT 09/M03 A2987 RMK A01 T00881025  RH  045%=      5-min Rain = 0
KBO1 170046Z 20010KT 09/M03 A2987 RMK A01 T00871025  RH  045%=      5-min Rain = 0
KBO1 170047Z 20011KT 09/M03 A2987 RMK A01 T00871025  RH  045%=      5-min Rain = 0
KBO1 170048Z 20011KT 09/M03 A2987 RMK A01 T00861025  RH  046%=      5-min Rain = 0
KBO1 170049Z 20011KT 09/M03 A2987 RMK A01 T00851025  RH  046%=      5-min Rain = 0
KBO1 170050Z 20011KT 08/M03 A2987 RMK A01 T00841025  RH  046%=      5-min Rain = 0
KBO1 170051Z 20011KT 08/M03 A2987 RMK A01 T00831025  RH  046%=      5-min Rain = 0
KBO1 170052Z 20011KT 08/M03 A2987 RMK A01 T00821025  RH  047%=      5-min Rain = 0
KBO1 170053Z 20011KT 08/M03 A2987 RMK A01 T00811025  RH  047%=      5-min Rain = 0
KBO1 170054Z 20011KT 08/M03 A2987 RMK A01 T00801025  RH  047%=      5-min Rain = 0
KBO1 170055Z 20011KT 08/M03 A2987 RMK A01 T00791025  RH  048%=      5-min Rain = 0
KBO1 170056Z 20011KT 08/M03 A2987 RMK A01 T00781025  RH  048%=      5-min Rain = 0
KBO1 170057Z 20011KT 08/M03 A2987 RMK A01 T00771025  RH  048%=      5-min Rain = 0
KBO1 170058Z 20011KT 08/M03 A2987 RMK A01 T00761025  RH  049%=      5-min Rain = 0
KBO1 170059Z 20010KT 08/M03 A2987 RMK A01 T00751025  RH  049%=      5-min Rain = 0
KBO1 170100Z 19010KT 07/M03 A2987 RMK A01 T00741025  RH  049%=      5-min Rain = 0
KBO1 170101Z 19010KT 07/M03 A2987 RMK A01 T00731025  RH  050%=      5-min Rain = 0
KBO1 170102Z 19010KT 07/M03 A2987 RMK A01 T00711026  RH  050%=      5-min Rain = 0
KBO1 170103Z 19010KT 07/M03 A2987 RMK A01 T00691027  RH  051%=      5-min Rain = 0
KBO1 170104Z 19010KT 07/M03 A2987 RMK A01 T00671027  RH  051%=      5-min Rain = 0
KBO1 170105Z 19011KT 07/M03 A2987 RMK A01 T00651028  RH  051%=      5-min Rain = 0
KBO1 170106Z 19011KT 06/M03 A2987 RMK A01 T00641028  RH  052%=      5-min Rain = 0
KBO1 170107Z 19011KT 06/M03 A2987 RMK A01 T00631028  RH  052%=      5-min Rain = 0
KBO1 170108Z 19010KT 06/M03 A2987 RMK A01 T00621029  RH  052%=      5-min Rain = 0
KBO1 170109Z 19010KT 06/M03 A2987 RMK A01 T00611029  RH  052%=      5-min Rain = 0
KBO1 170110Z 19010KT 06/M03 A2987 RMK A01 T00601029  RH  053%=      5-min Rain = 0
KBO1 170111Z 19010KT 06/M03 A2987 RMK A01 T00591029  RH  053%=      5-min Rain = 0
KBO1 170112Z 19011KT 06/M03 A2987 RMK A01 T00581029  RH  054%=      5-min Rain = 0
KBO1 170113Z 19011KT 06/M03 A2987 RMK A01 T00571029  RH  054%=      5-min Rain = 0
KBO1 170114Z 19011KT 06/M03 A2987 RMK A01 T00561029  RH  054%=      5-min Rain = 0
KBO1 170115Z 19010KT 06/M03 A2987 RMK A01 T00561029  RH  054%=      5-min Rain = 0
KBO1 170116Z 19010KT 06/M03 A2987 RMK A01 T00551029  RH  055%=      5-min Rain = 0
KBO1 170117Z 19010KT 05/M03 A2987 RMK A01 T00541029  RH  055%=      5-min Rain = 0
KBO1 170118Z 20010KT 05/M03 A2987 RMK A01 T00531029  RH  055%=      5-min Rain = 0
KBO1 170119Z 20010KT 05/M03 A2987 RMK A01 T00521029  RH  056%=      5-min Rain = 0
KBO1 170120Z 20011KT 05/M03 A2987 RMK A01 T00511030  RH  056%=      5-min Rain = 0
KBO1 170121Z 20011KT 05/M03 A2987 RMK A01 T00501030  RH  056%=      5-min Rain = 0
KBO1 170122Z 20011KT 05/M03 A2987 RMK A01 T00491030  RH  057%=      5-min Rain = 0
KBO1 170123Z 20011KT 05/M03 A2987 RMK A01 T00491029  RH  057%=      5-min Rain = 0
KBO1 170124Z 19011KT 05/M03 A2987 RMK A01 T00481029  RH  057%=      5-min Rain = 0
KBO1 170125Z 20011KT 05/M03 A2987 RMK A01 T00481029  RH  057%=      5-min Rain = 0
KBO1 170126Z 19011KT 05/M03 A2987 RMK A01 T00471029  RH  058%=      5-min Rain = 0
KBO1 170127Z 19011KT 05/M03 A2987 RMK A01 T00471029  RH  058%=      5-min Rain = 0
KBO1 170128Z 20011KT 05/M03 A2987 RMK A01 T00471028  RH  058%=      5-min Rain = 0
KBO1 170129Z 20011KT 05/M03 A2987 RMK A01 T00481028  RH  058%=      5-min Rain = 0
KBO1 170130Z 20011KT 05/M03 A2987 RMK A01 T00491027  RH  058%=      5-min Rain = 0
KBO1 170131Z 19010KT 05/M03 A2987 RMK A01 T00491027  RH  058%=      5-min Rain = 0
KBO1 170132Z 20010KT 05/M03 A2987 RMK A01 T00491027  RH  058%=      5-min Rain = 0
KBO1 170133Z 20010KT 05/M03 A2987 RMK A01 T00481027  RH  058%=      5-min Rain = 0
KBO1 170134Z 20010KT 05/M03 A2987 RMK A01 T00481027  RH  058%=      5-min Rain = 0
KBO1 170135Z 20010KT 05/M03 A2987 RMK A01 T00471027  RH  059%=      5-min Rain = 0
KBO1 170136Z 20010KT 05/M03 A2987 RMK A01 T00461027  RH  059%=      5-min Rain = 0
KBO1 170137Z 20010KT 05/M03 A2987 RMK A01 T00451027  RH  060%=      5-min Rain = 0
KBO1 170138Z 20011KT 04/M03 A2987 RMK A01 T00441027  RH  060%=      5-min Rain = 0
KBO1 170139Z 20011KT 04/M03 A2987 RMK A01 T00431027  RH  060%=      5-min Rain = 0
KBO1 170140Z 20011KT 04/M03 A2987 RMK A01 T00431028  RH  060%=      5-min Rain = 0
KBO1 170141Z 20011KT 04/M03 A2986 RMK A01 T00431028  RH  060%=      5-min Rain = 0
KBO1 170142Z 20012KT 05/M03 A2986 RMK A01 T00451027  RH  059%=      5-min Rain = 0
KBO1 170143Z 20012KT 05/M03 A2986 RMK A01 T00481027  RH  058%=      5-min Rain = 0
KBO1 170144Z 20012KT 05/M03 A2986 RMK A01 T00501027  RH  058%=      5-min Rain = 0
KBO1 170145Z 20012KT 05/M03 A2986 RMK A01 T00511027  RH  057%=      5-min Rain = 0
KBO1 170146Z 19011KT 05/M03 A2986 RMK A01 T00511027  RH  057%=      5-min Rain = 0
KBO1 170147Z 19012KT 05/M03 A2986 RMK A01 T00501028  RH  057%=      5-min Rain = 0
KBO1 170148Z 19012KT 05/M03 A2986 RMK A01 T00501028  RH  057%=      5-min Rain = 0
KBO1 170149Z 20012KT 05/M03 A2986 RMK A01 T00491028  RH  057%=      5-min Rain = 0
KBO1 170150Z 19012KT 05/M03 A2986 RMK A01 T00491028  RH  057%=      5-min Rain = 0
KBO1 170151Z 20012KT 05/M03 A2986 RMK A01 T00491029  RH  057%=      5-min Rain = 0
KBO1 170152Z 19011KT 05/M03 A2986 RMK A01 T00491029  RH  057%=      5-min Rain = 0
KBO1 170153Z 19011KT 05/M03 A2986 RMK A01 T00491029  RH  057%=      5-min Rain = 0
KBO1 170154Z 19011KT 05/M03 A2986 RMK A01 T00461029  RH  058%=      5-min Rain = 0
KBO1 170155Z 19011KT 04/M03 A2986 RMK A01 T00431030  RH  059%=      5-min Rain = 0
KBO1 170156Z 19011KT 04/M03 A2986 RMK A01 T00401030  RH  060%=      5-min Rain = 0
KBO1 170157Z 19012KT 04/M03 A2986 RMK A01 T00371030  RH  061%=      5-min Rain = 0
KBO1 170158Z 19012KT 04/M03 A2986 RMK A01 T00361030  RH  062%=      5-min Rain = 0
KBO1 170159Z 19012KT 04/M03 A2986 RMK A01 T00361029  RH  062%=      5-min Rain = 0
KBO1 170200Z 19012KT 04/M03 A2986 RMK A01 T00361029  RH  062%=      5-min Rain = 0
KBO1 170201Z 20012KT 04/M03 A2986 RMK A01 T00361029  RH  062%=      5-min Rain = 0
KBO1 170202Z 20013KT 04/M03 A2986 RMK A01 T00371029  RH  062%=      5-min Rain = 0
KBO1 170203Z 20013KT 04/M03 A2986 RMK A01 T00401029  RH  061%=      5-min Rain = 0
KBO1 170204Z 20012KT 04/M03 A2986 RMK A01 T00421029  RH  060%=      5-min Rain = 0
KBO1 170205Z 20013KT 04/M03 A2986 RMK A01 T00431029  RH  059%=      5-min Rain = 0
KBO1 170206Z 20012KT 04/M03 A2986 RMK A01 T00431030  RH  059%=      5-min Rain = 0
KBO1 170207Z 20013KT 04/M03 A2986 RMK A01 T00441030  RH  059%=      5-min Rain = 0
KBO1 170208Z 20013KT 05/M03 A2986 RMK A01 T00451031  RH  058%=      5-min Rain = 0
KBO1 170209Z 20013KT 05/M03 A2986 RMK A01 T00461031  RH  058%=      5-min Rain = 0
KBO1 170210Z 20012KT 05/M03 A2986 RMK A01 T00471030  RH  057%=      5-min Rain = 0
KBO1 170211Z 20012KT 05/M03 A2986 RMK A01 T00481030  RH  057%=      5-min Rain = 0
KBO1 170212Z 20013KT 05/M03 A2986 RMK A01 T00491030  RH  056%=      5-min Rain = 0
KBO1 170213Z 20013KT 05/M03 A2986 RMK A01 T00491031  RH  056%=      5-min Rain = 0
KBO1 170214Z 20013KT 05/M03 A2986 RMK A01 T00491031  RH  056%=      5-min Rain = 0
KBO1 170215Z 20013KT 05/M03 A2986 RMK A01 T00491031  RH  056%=      5-min Rain = 0
KBO1 170216Z 20013KT 05/M03 A2986 RMK A01 T00481031  RH  056%=      5-min Rain = 0
KBO1 170217Z 20013KT 05/M03 A2986 RMK A01 T00481031  RH  056%=      5-min Rain = 0
KBO1 170218Z 20013KT 05/M03 A2986 RMK A01 T00471032  RH  057%=      5-min Rain = 0
KBO1 170219Z 20012KT 05/M03 A2986 RMK A01 T00471032  RH  057%=      5-min Rain = 0
KBO1 170220Z 20013KT 05/M03 A2986 RMK A01 T00471032  RH  056%=      5-min Rain = 0
KBO1 170221Z 20012KT 05/M03 A2986 RMK A01 T00471032  RH  056%=      5-min Rain = 0
KBO1 170222Z 20012KT 05/M03 A2986 RMK A01 T00471032  RH  057%=      5-min Rain = 0
KBO1 170223Z 20012KT 05/M03 A2986 RMK A01 T00461033  RH  057%=      5-min Rain = 0
KBO1 170224Z 20012KT 05/M03 A2986 RMK A01 T00461033  RH  057%=      5-min Rain = 0
KBO1 170225Z 21012KT 05/M03 A2986 RMK A01 T00461033  RH  057%=      5-min Rain = 0
KBO1 170226Z 21012KT 05/M03 A2986 RMK A01 T00451034  RH  057%=      5-min Rain = 0
KBO1 170227Z 21012KT 05/M03 A2986 RMK A01 T00451034  RH  057%=      5-min Rain = 0
KBO1 170228Z 21012KT 05/M04 A2986 RMK A01 T00451035  RH  056%=      5-min Rain = 0
KBO1 170229Z 21012KT 05/M04 A2986 RMK A01 T00451035  RH  056%=      5-min Rain = 0
KBO1 170230Z 21011KT 05/M04 A2986 RMK A01 T00451035  RH  056%=      5-min Rain = 0
KBO1 170231Z 21012KT 05/M04 A2986 RMK A01 T00461035  RH  056%=      5-min Rain = 0
KBO1 170232Z 21011KT 05/M04 A2986 RMK A01 T00451035  RH  056%=      5-min Rain = 0
KBO1 170233Z 21012KT 05/M04 A2986 RMK A01 T00461036  RH  055%=      5-min Rain = 0
KBO1 170234Z 21012KT 05/M04 A2986 RMK A01 T00451037  RH  055%=      5-min Rain = 0
KBO1 170235Z 22012KT 05/M04 A2986 RMK A01 T00461037  RH  055%=      5-min Rain = 0
KBO1 170236Z 21011KT 05/M04 A2985 RMK A01 T00471037  RH  055%=      5-min Rain = 0
KBO1 170237Z 22011KT 05/M04 A2986 RMK A01 T00461037  RH  055%=      5-min Rain = 0
KBO1 170238Z 21011KT 05/M04 A2985 RMK A01 T00461037  RH  055%=      5-min Rain = 0
KBO1 170239Z 21011KT 05/M04 A2985 RMK A01 T00451037  RH  055%=      5-min Rain = 0
KBO1 170240Z 22011KT 05/M04 A2985 RMK A01 T00451036  RH  056%=      5-min Rain = 0
KBO1 170241Z 21012KT 04/M04 A2985 RMK A01 T00441037  RH  056%=      5-min Rain = 0
KBO1 170242Z 21011KT 04/M04 A2985 RMK A01 T00431037  RH  056%=      5-min Rain = 0
KBO1 170243Z 21012KT 04/M04 A2985 RMK A01 T00431037  RH  056%=      5-min Rain = 0
KBO1 170244Z 21011KT 04/M04 A2985 RMK A01 T00431038  RH  056%=      5-min Rain = 0
KBO1 170245Z 22012KT 04/M04 A2985 RMK A01 T00431038  RH  056%=      5-min Rain = 0
KBO1 170246Z 21012KT 04/M04 A2985 RMK A01 T00441037  RH  056%=      5-min Rain = 0
KBO1 170247Z 22011KT 04/M04 A2985 RMK A01 T00441037  RH  056%=      5-min Rain = 0
KBO1 170248Z 22012KT 04/M04 A2985 RMK A01 T00431037  RH  056%=      5-min Rain = 0
KBO1 170249Z 22011KT 04/M04 A2985 RMK A01 T00431037  RH  056%=      5-min Rain = 0
KBO1 170250Z 22011KT 04/M04 A2985 RMK A01 T00431037  RH  056%=      5-min Rain = 0
KBO1 170251Z 22012KT 04/M04 A2985 RMK A01 T00431037  RH  056%=      5-min Rain = 0
KBO1 170252Z 22012KT 04/M04 A2985 RMK A01 T00431038  RH  056%=      5-min Rain = 0
KBO1 170253Z 22012KT 04/M04 A2985 RMK A01 T00441038  RH  055%=      5-min Rain = 0
KBO1 170254Z 22011KT 04/M04 A2985 RMK A01 T00441038  RH  055%=      5-min Rain = 0
KBO1 170255Z 22011KT 04/M04 A2985 RMK A01 T00431037  RH  056%=      5-min Rain = 0
KBO1 170256Z 22011KT 04/M04 A2985 RMK A01 T00421038  RH  056%=      5-min Rain = 0
KBO1 170257Z 22012KT 04/M04 A2985 RMK A01 T00421038  RH  056%=      5-min Rain = 0
KBO1 170258Z 22011KT 04/M04 A2985 RMK A01 T00411038  RH  056%=      5-min Rain = 0
KBO1 170259Z 22012KT 04/M04 A2985 RMK A01 T00411038  RH  056%=      5-min Rain = 0
KBO1 170300Z 22012KT 04/M04 A2985 RMK A01 T00411038  RH  056%=      5-min Rain = 0
KBO1 170301Z 22012KT 04/M04 A2985 RMK A01 T00411038  RH  056%=      5-min Rain = 0
KBO1 170302Z 22012KT 04/M04 A2985 RMK A01 T00411038  RH  056%=      5-min Rain = 0
KBO1 170303Z 22012KT 04/M04 A2985 RMK A01 T00421038  RH  056%=      5-min Rain = 0
KBO1 170304Z 22012KT 04/M04 A2986 RMK A01 T00421038  RH  056%=      5-min Rain = 0
KBO1 170305Z 22011KT 04/M04 A2986 RMK A01 T00421037  RH  056%=      5-min Rain = 0
KBO1 170306Z 22012KT 04/M04 A2986 RMK A01 T00421037  RH  056%=      5-min Rain = 0
KBO1 170307Z 22012KT 04/M04 A2986 RMK A01 T00411037  RH  057%=      5-min Rain = 0
KBO1 170308Z 22012KT 04/M04 A2986 RMK A01 T00401037  RH  057%=      5-min Rain = 0
KBO1 170309Z 22012KT 04/M04 A2986 RMK A01 T00411037  RH  057%=      5-min Rain = 0
KBO1 170310Z 22012KT 04/M04 A2986 RMK A01 T00401037  RH  057%=      5-min Rain = 0
KBO1 170311Z 22012KT 04/M04 A2986 RMK A01 T00411037  RH  057%=      5-min Rain = 0
KBO1 170312Z 22012KT 04/M04 A2986 RMK A01 T00401038  RH  057%=      5-min Rain = 0
KBO1 170313Z 23012KT 04/M04 A2986 RMK A01 T00391037  RH  057%=      5-min Rain = 0
KBO1 170314Z 23012KT 04/M04 A2986 RMK A01 T00391038  RH  057%=      5-min Rain = 0
KBO1 170315Z 22011KT 04/M04 A2986 RMK A01 T00381038  RH  058%=      5-min Rain = 0
KBO1 170316Z 23012KT 04/M04 A2986 RMK A01 T00381037  RH  058%=      5-min Rain = 0
KBO1 170317Z 22012KT 04/M04 A2986 RMK A01 T00371038  RH  058%=      5-min Rain = 0
KBO1 170318Z 23012KT 04/M04 A2986 RMK A01 T00371038  RH  058%=      5-min Rain = 0
KBO1 170319Z 22011KT 04/M04 A2985 RMK A01 T00371037  RH  058%=      5-min Rain = 0
KBO1 170320Z 22011KT 04/M04 A2985 RMK A01 T00371037  RH  058%=      5-min Rain = 0
KBO1 170321Z 23012KT 04/M04 A2985 RMK A01 T00371037  RH  058%=      5-min Rain = 0
KBO1 170322Z 22011KT 04/M04 A2985 RMK A01 T00371037  RH  058%=      5-min Rain = 0
KBO1 170323Z 22011KT 04/M04 A2985 RMK A01 T00371037  RH  059%=      5-min Rain = 0
KBO1 170324Z 22011KT 04/M04 A2985 RMK A01 T00361037  RH  059%=      5-min Rain = 0
KBO1 170325Z 22011KT 04/M04 A2986 RMK A01 T00361037  RH  058%=      5-min Rain = 0
KBO1 170326Z 22011KT 04/M04 A2986 RMK A01 T00371037  RH  058%=      5-min Rain = 0
KBO1 170327Z 22012KT 04/M04 A2986 RMK A01 T00371037  RH  058%=      5-min Rain = 0
KBO1 170328Z 22012KT 04/M04 A2986 RMK A01 T00381037  RH  058%=      5-min Rain = 0
KBO1 170329Z 23012KT 04/M04 A2986 RMK A01 T00391037  RH  058%=      5-min Rain = 0
KBO1 170330Z 22011KT 04/M04 A2986 RMK A01 T00391037  RH  058%=      5-min Rain = 0
KBO1 170331Z 22012KT 04/M04 A2986 RMK A01 T00391037  RH  058%=      5-min Rain = 0
KBO1 170332Z 22012KT 04/M04 A2986 RMK A01 T00391037  RH  057%=      5-min Rain = 0
KBO1 170333Z 22012KT 04/M04 A2986 RMK A01 T00391037  RH  057%=      5-min Rain = 0
KBO1 170334Z 22012KT 04/M04 A2986 RMK A01 T00391037  RH  057%=      5-min Rain = 0
KBO1 170335Z 22012KT 04/M04 A2986 RMK A01 T00391038  RH  057%=      5-min Rain = 0
KBO1 170336Z 22012KT 04/M04 A2986 RMK A01 T00391037  RH  057%=      5-min Rain = 0
KBO1 170337Z 22012KT 04/M04 A2986 RMK A01 T00401038  RH  057%=      5-min Rain = 0
KBO1 170338Z 22012KT 04/M04 A2986 RMK A01 T00401038  RH  057%=      5-min Rain = 0
KBO1 170339Z 22012KT 04/M04 A2986 RMK A01 T00391038  RH  057%=      5-min Rain = 0
KBO1 170340Z 22012KT 04/M04 A2986 RMK A01 T00401038  RH  057%=      5-min Rain = 0
KBO1 170341Z 22012KT 04/M04 A2986 RMK A01 T00401038  RH  057%=      5-min Rain = 0
KBO1 170342Z 22013KT 04/M04 A2986 RMK A01 T00401038  RH  057%=      5-min Rain = 0
KBO1 170343Z 22013KT 04/M04 A2985 RMK A01 T00401038  RH  057%=      5-min Rain = 0
KBO1 170344Z 22013KT 04/M04 A2986 RMK A01 T00401038  RH  057%=      5-min Rain = 0
KBO1 170345Z 22013KT 04/M04 A2985 RMK A01 T00401038  RH  057%=      5-min Rain = 0
KBO1 170346Z 22013KT 04/M04 A2985 RMK A01 T00391038  RH  057%=      5-min Rain = 0
KBO1 170347Z 22013KT 04/M04 A2985 RMK A01 T00401037  RH  057%=      5-min Rain = 0
KBO1 170348Z 22013KT 04/M04 A2985 RMK A01 T00401038  RH  057%=      5-min Rain = 0
KBO1 170349Z 22013KT 04/M04 A2985 RMK A01 T00401038  RH  057%=      5-min Rain = 0
KBO1 170350Z 22013KT 04/M04 A2985 RMK A01 T00391037  RH  057%=      5-min Rain = 0
KBO1 170351Z 22013KT 04/M04 A2985 RMK A01 T00391038  RH  058%=      5-min Rain = 0
KBO1 170352Z 22013KT 04/M04 A2985 RMK A01 T00391037  RH  058%=      5-min Rain = 0
KBO1 170353Z 22013KT 04/M04 A2985 RMK A01 T00381038  RH  057%=      5-min Rain = 0
KBO1 170354Z 22013KT 04/M04 A2985 RMK A01 T00391038  RH  057%=      5-min Rain = 0
KBO1 170355Z 22013KT 04/M04 A2985 RMK A01 T00391038  RH  057%=      5-min Rain = 0
KBO1 170356Z 22012KT 04/M04 A2985 RMK A01 T00391038  RH  058%=      5-min Rain = 0
KBO1 170357Z 22013KT 04/M04 A2985 RMK A01 T00391037  RH  058%=      5-min Rain = 0
KBO1 170358Z 22012KT 04/M04 A2985 RMK A01 T00391037  RH  058%=      5-min Rain = 0
KBO1 170359Z 22012KT 04/M04 A2985 RMK A01 T00391037  RH  058%=      5-min Rain = 0
KBO1 170400Z 22012KT 04/M04 A2985 RMK A01 T00381037  RH  058%=      5-min Rain = 0
KBO1 170401Z 22012KT 04/M04 A2985 RMK A01 T00381037  RH  058%=      5-min Rain = 0
KBO1 170402Z 22012KT 04/M04 A2985 RMK A01 T00381037  RH  058%=      5-min Rain = 0
KBO1 170403Z 22012KT 04/M04 A2985 RMK A01 T00381036  RH  058%=      5-min Rain = 0
KBO1 170404Z 22012KT 04/M04 A2985 RMK A01 T00381036  RH  059%=      5-min Rain = 0
KBO1 170405Z 22012KT 04/M04 A2985 RMK A01 T00381036  RH  058%=      5-min Rain = 0
KBO1 170406Z 22013KT 04/M04 A2985 RMK A01 T00391036  RH  058%=      5-min Rain = 0
KBO1 170407Z 22012KT 04/M04 A2985 RMK A01 T00391036  RH  058%=      5-min Rain = 0
KBO1 170408Z 22012KT 04/M04 A2985 RMK A01 T00391036  RH  058%=      5-min Rain = 0
KBO1 170409Z 22012KT 04/M04 A2985 RMK A01 T00391036  RH  058%=      5-min Rain = 0
KBO1 170410Z 22013KT 04/M04 A2985 RMK A01 T00401036  RH  058%=      5-min Rain = 0
KBO1 170411Z 22013KT 04/M04 A2985 RMK A01 T00401036  RH  058%=      5-min Rain = 0
KBO1 170412Z 22012KT 04/M04 A2985 RMK A01 T00411036  RH  057%=      5-min Rain = 0
KBO1 170413Z 22012KT 04/M04 A2985 RMK A01 T00411036  RH  057%=      5-min Rain = 0
KBO1 170414Z 22012KT 04/M04 A2985 RMK A01 T00411035  RH  058%=      5-min Rain = 0
KBO1 170415Z 22013KT 04/M04 A2985 RMK A01 T00411035  RH  058%=      5-min Rain = 0
KBO1 170416Z 22012KT 04/M04 A2984 RMK A01 T00401036  RH  058%=      5-min Rain = 0
KBO1 170417Z 22013KT 04/M04 A2984 RMK A01 T00411035  RH  058%=      5-min Rain = 0
KBO1 170418Z 22013KT 04/M04 A2984 RMK A01 T00411035  RH  057%=      5-min Rain = 0
KBO1 170419Z 22013KT 04/M04 A2984 RMK A01 T00411036  RH  057%=      5-min Rain = 0
KBO1 170420Z 22013KT 04/M04 A2984 RMK A01 T00421035  RH  057%=      5-min Rain = 0
KBO1 170421Z 22014KT 04/M04 A2984 RMK A01 T00421036  RH  057%=      5-min Rain = 0
KBO1 170422Z 22013KT 04/M04 A2984 RMK A01 T00431036  RH  057%=      5-min Rain = 0
KBO1 170423Z 22014KT 04/M04 A2984 RMK A01 T00441035  RH  056%=      5-min Rain = 0
KBO1 170424Z 22014KT 04/M04 A2984 RMK A01 T00441036  RH  056%=      5-min Rain = 0
KBO1 170425Z 22013KT 04/M04 A2984 RMK A01 T00441036  RH  056%=      5-min Rain = 0
KBO1 170426Z 22013KT 04/M04 A2984 RMK A01 T00441036  RH  056%=      5-min Rain = 0
KBO1 170427Z 22013KT 04/M04 A2984 RMK A01 T00441036  RH  056%=      5-min Rain = 0
KBO1 170428Z 21014KT 04/M04 A2984 RMK A01 T00441036  RH  056%=      5-min Rain = 0
KBO1 170429Z 21013KT 04/M04 A2984 RMK A01 T00441036  RH  056%=      5-min Rain = 0
KBO1 170430Z 22013KT 04/M04 A2984 RMK A01 T00441036  RH  056%=      5-min Rain = 0
KBO1 170431Z 21013KT 04/M04 A2984 RMK A01 T00441036  RH  056%=      5-min Rain = 0
KBO1 170432Z 21013KT 04/M04 A2984 RMK A01 T00441036  RH  056%=      5-min Rain = 0
KBO1 170433Z 22013KT 04/M04 A2984 RMK A01 T00441036  RH  056%=      5-min Rain = 0
KBO1 170434Z 21013KT 04/M04 A2984 RMK A01 T00441035  RH  056%=      5-min Rain = 0
KBO1 170435Z 21014KT 04/M04 A2984 RMK A01 T00441035  RH  056%=      5-min Rain = 0
KBO1 170436Z 22014KT 04/M04 A2984 RMK A01 T00441035  RH  057%=      5-min Rain = 0
KBO1 170437Z 22014KT 05/M04 A2984 RMK A01 T00451035  RH  056%=      5-min Rain = 0
KBO1 170438Z 21014KT 05/M03 A2984 RMK A01 T00451034  RH  056%=      5-min Rain = 0
KBO1 170439Z 21013KT 05/M03 A2984 RMK A01 T00461034  RH  056%=      5-min Rain = 0
KBO1 170440Z 21013KT 05/M03 A2984 RMK A01 T00461034  RH  056%=      5-min Rain = 0
KBO1 170441Z 21014KT 05/M03 A2984 RMK A01 T00461034  RH  056%=      5-min Rain = 0
KBO1 170442Z 21013KT 05/M03 A2984 RMK A01 T00471034  RH  056%=      5-min Rain = 0
KBO1 170443Z 21014KT 05/M03 A2984 RMK A01 T00471033  RH  056%=      5-min Rain = 0
KBO1 170444Z 21013KT 05/M03 A2984 RMK A01 T00471033  RH  056%=      5-min Rain = 0
KBO1 170445Z 21013KT 05/M03 A2984 RMK A01 T00471033  RH  056%=      5-min Rain = 0
KBO1 170446Z 21013KT 05/M03 A2984 RMK A01 T00461033  RH  056%=      5-min Rain = 0
KBO1 170447Z 21013KT 05/M03 A2984 RMK A01 T00451033  RH  057%=      5-min Rain = 0
KBO1 170448Z 21013KT 05/M03 A2984 RMK A01 T00451033  RH  057%=      5-min Rain = 0
KBO1 170449Z 20013KT 05/M03 A2984 RMK A01 T00451033  RH  057%=      5-min Rain = 0
KBO1 170450Z 20012KT 04/M03 A2984 RMK A01 T00441033  RH  058%=      5-min Rain = 0
KBO1 170451Z 20013KT 04/M03 A2984 RMK A01 T00421033  RH  058%=      5-min Rain = 0
KBO1 170452Z 20014KT 04/M03 A2984 RMK A01 T00411034  RH  058%=      5-min Rain = 0
KBO1 170453Z 20014KT 04/M03 A2984 RMK A01 T00401034  RH  059%=      5-min Rain = 0
KBO1 170454Z 21014KT 04/M03 A2984 RMK A01 T00401033  RH  059%=      5-min Rain = 0
KBO1 170455Z 21014KT 04/M03 A2984 RMK A01 T00411033  RH  059%=      5-min Rain = 0
KBO1 170456Z 21014KT 04/M03 A2984 RMK A01 T00431033  RH  058%=      5-min Rain = 0
KBO1 170457Z 21014KT 04/M03 A2984 RMK A01 T00441033  RH  057%=      5-min Rain = 0
KBO1 170458Z 20013KT 04/M03 A2984 RMK A01 T00441032  RH  057%=      5-min Rain = 0
KBO1 170459Z 20013KT 04/M03 A2984 RMK A01 T00441032  RH  058%=      5-min Rain = 0
KBO1 170500Z 20013KT 04/M03 A2984 RMK A01 T00421032  RH  058%=      5-min Rain = 0
KBO1 170501Z 20012KT 04/M03 A2984 RMK A01 T00401033  RH  059%=      5-min Rain = 0
KBO1 170502Z 21012KT 04/M03 A2984 RMK A01 T00401032  RH  059%=      5-min Rain = 0
KBO1 170503Z 21012KT 04/M03 A2984 RMK A01 T00401032  RH  059%=      5-min Rain = 0
KBO1 170504Z 20013KT 04/M03 A2984 RMK A01 T00391032  RH  059%=      5-min Rain = 0
KBO1 170505Z 21012KT 04/M03 A2984 RMK A01 T00401032  RH  059%=      5-min Rain = 0
KBO1 170506Z 21013KT 04/M03 A2983 RMK A01 T00411031  RH  059%=      5-min Rain = 0
KBO1 170507Z 21013KT 04/M03 A2983 RMK A01 T00421031  RH  059%=      5-min Rain = 0
KBO1 170508Z 21013KT 04/M03 A2983 RMK A01 T00421031  RH  059%=      5-min Rain = 0
KBO1 170509Z 21013KT 04/M03 A2983 RMK A01 T00431031  RH  058%=      5-min Rain = 0
KBO1 170510Z 21013KT 04/M03 A2983 RMK A01 T00441031  RH  058%=      5-min Rain = 0
KBO1 170511Z 21012KT 05/M03 A2983 RMK A01 T00451031  RH  058%=      5-min Rain = 0
KBO1 170512Z 21013KT 05/M03 A2983 RMK A01 T00461031  RH  057%=      5-min Rain = 0
KBO1 170513Z 21013KT 05/M03 A2983 RMK A01 T00471031  RH  057%=      5-min Rain = 0
KBO1 170514Z 21013KT 05/M03 A2983 RMK A01 T00471031  RH  057%=      5-min Rain = 0
KBO1 170515Z 21013KT 05/M03 A2983 RMK A01 T00481031  RH  056%=      5-min Rain = 0
KBO1 170516Z 21012KT 05/M03 A2983 RMK A01 T00481031  RH  056%=      5-min Rain = 0
KBO1 170517Z 21012KT 05/M03 A2983 RMK A01 T00481031  RH  056%=      5-min Rain = 0
KBO1 170518Z 21012KT 05/M03 A2983 RMK A01 T00481031  RH  056%=      5-min Rain = 0
KBO1 170519Z 21012KT 05/M03 A2983 RMK A01 T00481032  RH  056%=      5-min Rain = 0
KBO1 170520Z 21012KT 05/M03 A2983 RMK A01 T00481032  RH  056%=      5-min Rain = 0
KBO1 170521Z 21013KT 05/M03 A2983 RMK A01 T00491032  RH  056%=      5-min Rain = 0
KBO1 170522Z 21012KT 05/M03 A2983 RMK A01 T00491032  RH  056%=      5-min Rain = 0
KBO1 170523Z 21012KT 05/M03 A2983 RMK A01 T00491032  RH  056%=      5-min Rain = 0
KBO1 170524Z 21013KT 05/M03 A2983 RMK A01 T00481032  RH  056%=      5-min Rain = 0
KBO1 170525Z 21012KT 05/M03 A2983 RMK A01 T00481032  RH  056%=      5-min Rain = 0
KBO1 170526Z 21012KT 05/M03 A2983 RMK A01 T00481033  RH  056%=      5-min Rain = 0
KBO1 170527Z 21013KT 05/M03 A2983 RMK A01 T00481032  RH  056%=      5-min Rain = 0
KBO1 170528Z 21012KT 05/M03 A2983 RMK A01 T00481032  RH  056%=      5-min Rain = 0
KBO1 170529Z 21012KT 05/M03 A2983 RMK A01 T00491032  RH  056%=      5-min Rain = 0
KBO1 170530Z 21012KT 05/M03 A2983 RMK A01 T00481032  RH  056%=      5-min Rain = 0
KBO1 170531Z 21013KT 05/M03 A2983 RMK A01 T00481033  RH  056%=      5-min Rain = 0
KBO1 170532Z 21013KT 05/M03 A2983 RMK A01 T00481033  RH  056%=      5-min Rain = 0
KBO1 170533Z 22013KT 05/M03 A2983 RMK A01 T00481033  RH  056%=      5-min Rain = 0
KBO1 170534Z 22012KT 05/M03 A2983 RMK A01 T00481033  RH  056%=      5-min Rain = 0
KBO1 170535Z 22012KT 05/M03 A2982 RMK A01 T00481033  RH  056%=      5-min Rain = 0
KBO1 170536Z 22013KT 05/M03 A2982 RMK A01 T00481033  RH  056%=      5-min Rain = 0
KBO1 170537Z 22013KT 05/M03 A2982 RMK A01 T00491033  RH  055%=      5-min Rain = 0
KBO1 170538Z 22013KT 05/M03 A2982 RMK A01 T00491033  RH  055%=      5-min Rain = 0
KBO1 170539Z 22013KT 05/M03 A2982 RMK A01 T00501032  RH  055%=      5-min Rain = 0
KBO1 170540Z 22013KT 05/M03 A2982 RMK A01 T00501033  RH  055%=      5-min Rain = 0
KBO1 170541Z 22012KT 05/M03 A2982 RMK A01 T00501033  RH  055%=      5-min Rain = 0
KBO1 170542Z 22013KT 05/M03 A2982 RMK A01 T00491033  RH  055%=      5-min Rain = 0
KBO1 170543Z 22013KT 05/M03 A2982 RMK A01 T00491033  RH  056%=      5-min Rain = 0
KBO1 170544Z 22012KT 05/M03 A2982 RMK A01 T00481033  RH  056%=      5-min Rain = 0
KBO1 170545Z 22012KT 05/M03 A2982 RMK A01 T00481033  RH  056%=      5-min Rain = 0
KBO1 170546Z 22013KT 05/M03 A2982 RMK A01 T00481032  RH  056%=      5-min Rain = 0
KBO1 170547Z 22012KT 05/M03 A2982 RMK A01 T00481033  RH  056%=      5-min Rain = 0
KBO1 170548Z 22012KT 05/M03 A2982 RMK A01 T00481033  RH  056%=      5-min Rain = 0
KBO1 170549Z 22012KT 05/M03 A2982 RMK A01 T00481033  RH  056%=      5-min Rain = 0
KBO1 170550Z 22013KT 05/M03 A2982 RMK A01 T00481033  RH  056%=      5-min Rain = 0
KBO1 170551Z 21012KT 05/M03 A2982 RMK A01 T00491033  RH  056%=      5-min Rain = 0
KBO1 170552Z 21013KT 05/M03 A2982 RMK A01 T00471033  RH  056%=      5-min Rain = 0
KBO1 170553Z 21012KT 05/M03 A2982 RMK A01 T00471033  RH  056%=      5-min Rain = 0
KBO1 170554Z 21012KT 05/M03 A2982 RMK A01 T00471033  RH  056%=      5-min Rain = 0
KBO1 170555Z 21012KT 05/M03 A2982 RMK A01 T00461033  RH  056%=      5-min Rain = 0
KBO1 170556Z 21012KT 05/M03 A2982 RMK A01 T00461033  RH  057%=      5-min Rain = 0
KBO1 170557Z 21013KT 05/M03 A2982 RMK A01 T00451033  RH  057%=      5-min Rain = 0
KBO1 170558Z 21012KT 05/M03 A2982 RMK A01 T00451033  RH  057%=      5-min Rain = 0
KBO1 170559Z 21013KT 05/M03 A2982 RMK A01 T00451033  RH  057%=      5-min Rain = 0

Page generated in 0.0823 seconds.